Time,TemperatureF,DewpointF,PressureIn,WindDirection,WindDirectionDegrees,WindSpeedMPH,WindSpeedGustMPH,Humidity,HourlyPrecipIn,Conditions,Clouds,dailyrainin,SoftwareType,DateUTC
2013-02-19 00:00:00,45.5,42.7,29.78,SSW,211,21.0,23.0,90,0.00,,,0.36,Wunderground v.1.15,2013-02-19 05:00:00,
2013-02-19 00:05:00,45.5,42.7,29.77,South,173,13.0,17.0,90,0.00,,,0.00,Wunderground v.1.15,2013-02-19 05:05:00,
2013-02-19 00:07:00,45.4,42.6,29.76,South,188,17.0,17.0,90,0.00,,,0.00,Wunderground v.1.15,2013-02-19 05:07:00,
2013-02-19 00:11:00,45.4,42.6,29.76,South,184,13.0,14.0,90,0.00,,,0.00,Wunderground v.1.15,2013-02-19 05:11:00,
2013-02-19 00:13:00,45.3,42.5,29.75,SE,146,11.0,16.0,90,0.00,,,0.00,Wunderground v.1.15,2013-02-19 05:13:00,
2013-02-19 00:16:00,45.3,42.8,29.75,SW,236,11.0,19.0,91,0.00,,,0.00,Wunderground v.1.15,2013-02-19 05:16:00,
2013-02-19 00:20:00,45.2,42.7,29.74,South,184,14.0,16.0,91,0.00,,,0.00,Wunderground v.1.15,2013-02-19 05:20:00,
2013-02-19 00:22:00,45.1,42.6,29.74,SSW,195,21.0,21.0,91,0.00,,,0.00,Wunderground v.1.15,2013-02-19 05:22:00,
2013-02-19 00:26:00,45.0,42.5,29.74,SW,219,6.0,21.0,91,0.00,,,0.00,Wunderground v.1.15,2013-02-19 05:26:00,
2013-02-19 00:28:00,45.0,42.5,29.74,SW,217,18.0,21.0,91,0.00,,,0.00,Wunderground v.1.15,2013-02-19 05:28:00,
2013-02-19 00:33:00,45.0,42.5,29.74,SSW,205,5.0,13.0,91,0.00,,,0.00,Wunderground v.1.15,2013-02-19 05:33:00,
2013-02-19 00:34:00,44.9,42.4,29.73,SW,219,10.0,13.0,91,0.00,,,0.00,Wunderground v.1.15,2013-02-19 05:34:00,
2013-02-19 00:38:00,44.9,42.4,29.73,SW,228,10.0,16.0,91,0.00,,,0.00,Wunderground v.1.15,2013-02-19 05:38:00,
2013-02-19 00:39:00,44.8,42.3,29.73,WSW,244,5.0,16.0,91,0.00,,,0.00,Wunderground v.1.15,2013-02-19 05:39:00,
2013-02-19 00:45:00,44.9,42.1,29.74,SW,217,15.0,19.0,90,0.00,,,0.00,Wunderground v.1.15,2013-02-19 05:45:00,
2013-02-19 00:46:00,44.9,42.1,29.74,SSW,195,13.0,19.0,90,0.00,,,0.00,Wunderground v.1.15,2013-02-19 05:46:00,
2013-02-19 00:47:00,44.9,42.1,29.74,South,188,19.0,19.0,90,0.00,,,0.00,Wunderground v.1.15,2013-02-19 05:47:00,
2013-02-19 00:51:00,45.0,42.2,29.73,South,178,9.0,16.0,90,0.00,,,0.00,Wunderground v.1.15,2013-02-19 05:51:00,
2013-02-19 00:54:00,45.0,42.2,29.73,SSW,209,13.0,18.0,90,0.00,,,0.00,Wunderground v.1.15,2013-02-19 05:54:00,
2013-02-19 00:57:00,45.1,42.3,29.73,SW,236,20.0,20.0,90,0.00,,,0.00,Wunderground v.1.15,2013-02-19 05:57:00,
2013-02-19 01:00:00,45.2,42.2,29.74,WSW,246,8.0,14.0,89,0.00,,,0.00,Wunderground v.1.15,2013-02-19 06:00:00,
2013-02-19 01:01:00,45.2,42.2,29.74,SW,235,23.0,23.0,89,0.00,,,0.00,Wunderground v.1.15,2013-02-19 06:01:00,
2013-02-19 01:04:00,45.4,42.1,29.74,SW,221,11.0,23.0,88,0.00,,,0.00,Wunderground v.1.15,2013-02-19 06:04:00,
2013-02-19 01:10:00,45.5,42.2,29.73,SW,214,14.0,14.0,88,0.00,,,0.00,Wunderground v.1.15,2013-02-19 06:10:00,
2013-02-19 01:12:00,45.5,42.2,29.73,SW,215,19.0,19.0,88,0.00,,,0.00,Wunderground v.1.15,2013-02-19 06:12:00,
2013-02-19 01:13:00,45.5,42.2,29.73,SSW,213,20.0,20.0,88,0.00,,,0.01,Wunderground v.1.15,2013-02-19 06:13:00,
2013-02-19 01:16:00,45.4,42.3,29.74,South,178,14.0,20.0,89,0.00,,,0.01,Wunderground v.1.15,2013-02-19 06:16:00,
2013-02-19 01:18:00,45.3,42.2,29.74,SW,234,11.0,20.0,89,0.00,,,0.01,Wunderground v.1.15,2013-02-19 06:18:00,
2013-02-19 01:21:00,45.2,42.2,29.74,WSW,249,5.0,12.0,89,0.00,,,0.01,Wunderground v.1.15,2013-02-19 06:21:00,
2013-02-19 01:24:00,45.2,42.2,29.74,SW,218,11.0,21.0,89,0.00,,,0.01,Wunderground v.1.15,2013-02-19 06:24:00,
2013-02-19 01:27:00,45.2,42.2,29.74,SW,234,18.0,21.0,89,0.00,,,0.01,Wunderground v.1.15,2013-02-19 06:27:00,
2013-02-19 01:29:00,45.3,42.2,29.74,SSW,209,10.0,21.0,89,0.00,,,0.01,Wunderground v.1.15,2013-02-19 06:29:00,
2013-02-19 01:32:00,45.3,42.2,29.74,West,259,3.0,18.0,89,0.00,,,0.01,Wunderground v.1.15,2013-02-19 06:32:00,
2013-02-19 01:33:00,45.3,42.2,29.74,SSW,195,6.0,18.0,89,0.00,,,0.01,Wunderground v.1.15,2013-02-19 06:33:00,
2013-02-19 01:36:00,45.2,42.2,29.74,West,269,7.0,18.0,89,0.00,,,0.01,Wunderground v.1.15,2013-02-19 06:36:00,
2013-02-19 01:40:00,45.2,42.4,29.74,SW,226,12.0,12.0,90,0.00,,,0.01,Wunderground v.1.15,2013-02-19 06:40:00,
2013-02-19 01:42:00,45.2,42.4,29.74,SSW,213,19.0,19.0,90,0.00,,,0.01,Wunderground v.1.15,2013-02-19 06:42:00,
2013-02-19 01:48:00,45.1,42.6,29.74,South,191,6.0,19.0,91,0.00,,,0.02,Wunderground v.1.15,2013-02-19 06:48:00,
2013-02-19 01:51:00,45.0,42.5,29.75,SSW,210,11.0,12.0,91,0.00,,,0.02,Wunderground v.1.15,2013-02-19 06:51:00,
2013-02-19 01:54:00,45.0,42.5,29.74,West,263,10.0,15.0,91,0.00,,,0.02,Wunderground v.1.15,2013-02-19 06:54:00,
2013-02-19 01:57:00,45.0,42.5,29.75,WSW,244,13.0,18.0,91,0.00,,,0.02,Wunderground v.1.15,2013-02-19 06:57:00,
2013-02-19 02:00:00,45.0,42.8,29.74,SSW,210,14.0,14.0,92,0.00,,,0.02,Wunderground v.1.15,2013-02-19 07:00:00,
2013-02-19 02:02:00,45.0,42.8,29.75,South,184,11.0,20.0,92,0.00,,,0.02,Wunderground v.1.15,2013-02-19 07:02:00,
2013-02-19 02:05:00,44.9,42.7,29.75,SW,219,17.0,20.0,92,0.00,,,0.02,Wunderground v.1.15,2013-02-19 07:05:00,
2013-02-19 02:07:00,44.9,42.7,29.75,WSW,240,15.0,20.0,92,0.00,,,0.02,Wunderground v.1.15,2013-02-19 07:07:00,
2013-02-19 02:10:00,44.9,42.7,29.75,SW,215,10.0,13.0,92,0.00,,,0.02,Wunderground v.1.15,2013-02-19 07:10:00,
2013-02-19 02:12:00,44.9,42.7,29.75,SW,225,4.0,21.0,92,0.00,,,0.03,Wunderground v.1.15,2013-02-19 07:12:00,
2013-02-19 02:15:00,44.9,42.7,29.75,SW,217,23.0,23.0,92,0.00,,,0.03,Wunderground v.1.15,2013-02-19 07:15:00,
2013-02-19 02:17:00,44.8,42.6,29.75,SW,228,6.0,23.0,92,0.00,,,0.03,Wunderground v.1.15,2013-02-19 07:17:00,
2013-02-19 02:20:00,44.8,42.9,29.75,WSW,242,6.0,12.0,93,0.06,,,0.04,Wunderground v.1.15,2013-02-19 07:20:00,
2013-02-19 02:21:00,44.8,42.9,29.75,SW,222,19.0,19.0,93,0.06,,,0.04,Wunderground v.1.15,2013-02-19 07:21:00,
2013-02-19 02:22:00,44.8,42.9,29.75,WSW,245,17.0,21.0,93,0.06,,,0.04,Wunderground v.1.15,2013-02-19 07:22:00,
2013-02-19 02:26:00,44.9,43.0,29.75,SSW,200,8.0,21.0,93,0.06,,,0.04,Wunderground v.1.15,2013-02-19 07:26:00,
2013-02-19 02:27:00,44.9,43.0,29.75,SW,232,12.0,21.0,93,0.06,,,0.04,Wunderground v.1.15,2013-02-19 07:27:00,
2013-02-19 02:31:00,44.9,43.0,29.75,SSW,205,10.0,12.0,93,0.06,,,0.05,Wunderground v.1.15,2013-02-19 07:31:00,
2013-02-19 02:32:00,44.9,43.0,29.76,WSW,255,9.0,14.0,93,0.06,,,0.05,Wunderground v.1.15,2013-02-19 07:32:00,
2013-02-19 02:36:00,45.0,43.1,29.77,SW,228,17.0,17.0,93,0.13,,,0.06,Wunderground v.1.15,2013-02-19 07:36:00,
2013-02-19 02:38:00,45.0,43.1,29.77,WNW,303,6.0,17.0,93,0.23,,,0.07,Wunderground v.1.15,2013-02-19 07:38:00,
2013-02-19 02:41:00,44.9,43.0,29.77,WNW,292,3.0,8.0,93,0.16,,,0.07,Wunderground v.1.15,2013-02-19 07:41:00,
2013-02-19 02:43:00,44.9,43.0,29.77,WNW,294,11.0,14.0,93,0.11,,,0.07,Wunderground v.1.15,2013-02-19 07:43:00,
2013-02-19 02:46:00,44.5,42.6,29.78,NNW,336,6.0,14.0,93,0.07,,,0.07,Wunderground v.1.15,2013-02-19 07:46:00,
2013-02-19 02:48:00,44.3,42.4,29.78,North,357,10.0,17.0,93,0.06,,,0.07,Wunderground v.1.15,2013-02-19 07:48:00,
2013-02-19 02:51:00,43.3,40.8,29.79,NW,324,10.0,19.0,91,0.04,,,0.07,Wunderground v.1.15,2013-02-19 07:51:00,
2013-02-19 02:53:00,42.7,40.0,29.79,NNW,334,7.0,20.0,90,0.04,,,0.07,Wunderground v.1.15,2013-02-19 07:53:00,
2013-02-19 02:56:00,41.8,38.8,29.80,NNW,338,9.0,20.0,89,0.04,,,0.08,Wunderground v.1.15,2013-02-19 07:56:00,
2013-02-19 02:58:00,41.5,38.8,29.80,NW,317,12.0,20.0,90,0.04,,,0.08,Wunderground v.1.15,2013-02-19 07:58:00,
2013-02-19 03:01:00,40.9,38.2,29.80,WNW,299,5.0,12.0,90,0.04,,,0.08,Wunderground v.1.15,2013-02-19 08:01:00,
2013-02-19 03:03:00,40.7,38.0,29.80,NW,326,3.0,12.0,90,0.04,,,0.08,Wunderground v.1.15,2013-02-19 08:03:00,
2013-02-19 03:06:00,40.3,37.9,29.80,NW,309,5.0,16.0,91,0.04,,,0.08,Wunderground v.1.15,2013-02-19 08:06:00,
2013-02-19 03:07:00,40.3,37.9,29.80,NW,309,5.0,16.0,91,0.04,,,0.08,Wunderground v.1.15,2013-02-19 08:07:00,
2013-02-19 03:08:00,40.2,37.8,29.80,NW,321,4.0,16.0,91,0.04,,,0.08,Wunderground v.1.15,2013-02-19 08:08:00,
2013-02-19 03:12:00,40.0,37.6,29.80,WNW,286,12.0,12.0,91,0.00,,,0.08,Wunderground v.1.15,2013-02-19 08:12:00,
2013-02-19 03:13:00,39.9,37.5,29.80,NNW,333,3.0,12.0,91,0.00,,,0.09,Wunderground v.1.15,2013-02-19 08:13:00,
2013-02-19 03:17:00,39.7,37.3,29.80,NNW,331,6.0,12.0,91,0.00,,,0.09,Wunderground v.1.15,2013-02-19 08:17:00,
2013-02-19 03:19:00,39.6,37.2,29.80,NW,326,5.0,12.0,91,0.00,,,0.09,Wunderground v.1.15,2013-02-19 08:19:00,
2013-02-19 03:22:00,39.4,37.3,29.81,NW,309,5.0,10.0,92,0.00,,,0.09,Wunderground v.1.15,2013-02-19 08:22:00,
2013-02-19 03:23:00,39.4,37.3,29.81,WNW,301,3.0,10.0,92,0.00,,,0.09,Wunderground v.1.15,2013-02-19 08:23:00,
2013-02-19 03:24:00,39.3,37.2,29.81,NW,313,4.0,10.0,92,0.00,,,0.09,Wunderground v.1.15,2013-02-19 08:24:00,
2013-02-19 03:27:00,39.1,36.7,29.81,NNW,343,5.0,12.0,91,0.00,,,0.09,Wunderground v.1.15,2013-02-19 08:27:00,
2013-02-19 03:28:00,39.0,36.6,29.81,NW,321,5.0,12.0,91,0.00,,,0.09,Wunderground v.1.15,2013-02-19 08:28:00,
2013-02-19 03:29:00,38.9,36.5,29.81,North,1,5.0,12.0,91,0.00,,,0.09,Wunderground v.1.15,2013-02-19 08:29:00,
2013-02-19 03:32:00,38.8,36.7,29.81,West,259,12.0,12.0,92,0.00,,,0.09,Wunderground v.1.15,2013-02-19 08:32:00,
2013-02-19 03:33:00,38.7,36.6,29.81,NW,313,2.0,12.0,92,0.00,,,0.09,Wunderground v.1.15,2013-02-19 08:33:00,
2013-02-19 03:34:00,38.7,36.6,29.81,WNW,287,2.0,12.0,92,0.00,,,0.09,Wunderground v.1.15,2013-02-19 08:34:00,
2013-02-19 03:37:00,38.5,36.4,29.82,NNW,338,4.0,12.0,92,0.00,,,0.10,Wunderground v.1.15,2013-02-19 08:37:00,
2013-02-19 03:38:00,38.5,36.4,29.82,NW,314,6.0,12.0,92,0.00,,,0.10,Wunderground v.1.15,2013-02-19 08:38:00,
2013-02-19 03:39:00,38.4,36.3,29.82,NW,313,2.0,12.0,92,0.00,,,0.10,Wunderground v.1.15,2013-02-19 08:39:00,
2013-02-19 03:42:00,38.3,36.2,29.83,WNW,301,2.0,9.0,92,0.00,,,0.10,Wunderground v.1.15,2013-02-19 08:42:00,
2013-02-19 03:43:00,38.3,36.2,29.82,WNW,286,7.0,9.0,92,0.00,,,0.10,Wunderground v.1.15,2013-02-19 08:43:00,
2013-02-19 03:44:00,38.2,36.1,29.82,WNW,290,7.0,11.0,92,0.00,,,0.10,Wunderground v.1.15,2013-02-19 08:44:00,
2013-02-19 03:47:00,37.8,35.7,29.82,WNW,292,2.0,11.0,92,0.00,,,0.10,Wunderground v.1.15,2013-02-19 08:47:00,
2013-02-19 03:48:00,37.7,35.6,29.82,NW,309,3.0,11.0,92,0.00,,,0.10,Wunderground v.1.15,2013-02-19 08:48:00,
2013-02-19 03:49:00,37.7,35.6,29.82,WNW,287,3.0,11.0,92,0.00,,,0.10,Wunderground v.1.15,2013-02-19 08:49:00,
2013-02-19 03:52:00,37.5,35.4,29.82,WSW,255,12.0,12.0,92,0.00,,,0.10,Wunderground v.1.15,2013-02-19 08:52:00,
2013-02-19 03:53:00,37.5,35.4,29.82,NW,310,6.0,14.0,92,0.00,,,0.10,Wunderground v.1.15,2013-02-19 08:53:00,
2013-02-19 03:54:00,37.5,35.4,29.83,WNW,302,5.0,14.0,92,0.00,,,0.10,Wunderground v.1.15,2013-02-19 08:54:00,
2013-02-19 03:58:00,37.3,35.2,29.83,WNW,283,2.0,14.0,92,0.00,,,0.10,Wunderground v.1.15,2013-02-19 08:58:00,
2013-02-19 03:59:00,37.3,35.2,29.83,WNW,283,1.0,14.0,92,0.00,,,0.10,Wunderground v.1.15,2013-02-19 08:59:00,
2013-02-19 04:03:00,37.2,35.1,29.83,NW,305,2.0,12.0,92,0.00,,,0.10,Wunderground v.1.15,2013-02-19 09:03:00,
2013-02-19 04:04:00,37.2,35.1,29.83,NW,305,0.0,12.0,92,0.00,,,0.10,Wunderground v.1.15,2013-02-19 09:04:00,
2013-02-19 04:05:00,37.1,35.0,29.83,NW,305,2.0,12.0,92,0.00,,,0.10,Wunderground v.1.15,2013-02-19 09:05:00,
2013-02-19 04:08:00,37.1,35.0,29.83,NW,305,5.0,12.0,92,0.00,,,0.11,Wunderground v.1.15,2013-02-19 09:08:00,
2013-02-19 04:09:00,37.0,34.9,29.83,West,265,4.0,12.0,92,0.00,,,0.11,Wunderground v.1.15,2013-02-19 09:09:00,
2013-02-19 04:10:00,37.0,34.9,29.83,WNW,303,5.0,5.0,92,0.00,,,0.11,Wunderground v.1.15,2013-02-19 09:10:00,
2013-02-19 04:13:00,36.7,34.6,29.84,West,269,2.0,7.0,92,0.00,,,0.11,Wunderground v.1.15,2013-02-19 09:13:00,
2013-02-19 04:14:00,36.7,34.6,29.84,West,269,2.0,7.0,92,0.00,,,0.11,Wunderground v.1.15,2013-02-19 09:14:00,
2013-02-19 04:15:00,36.7,34.6,29.83,WSW,240,5.0,7.0,92,0.00,,,0.11,Wunderground v.1.15,2013-02-19 09:15:00,
2013-02-19 04:18:00,36.5,34.4,29.84,NNW,338,7.0,11.0,92,0.00,,,0.11,Wunderground v.1.15,2013-02-19 09:18:00,
2013-02-19 04:19:00,36.5,34.4,29.84,West,280,7.0,11.0,92,0.00,,,0.11,Wunderground v.1.15,2013-02-19 09:19:00,
2013-02-19 04:20:00,36.5,34.4,29.84,NW,307,3.0,5.0,92,0.00,,,0.11,Wunderground v.1.15,2013-02-19 09:20:00,
2013-02-19 04:24:00,36.5,34.4,29.84,West,272,2.0,5.0,92,0.00,,,0.11,Wunderground v.1.15,2013-02-19 09:24:00,
2013-02-19 04:25:00,36.5,34.4,29.84,NW,322,5.0,10.0,92,0.00,,,0.11,Wunderground v.1.15,2013-02-19 09:25:00,
2013-02-19 04:29:00,36.5,34.4,29.84,NW,305,4.0,10.0,92,0.00,,,0.11,Wunderground v.1.15,2013-02-19 09:29:00,
2013-02-19 04:30:00,36.5,34.4,29.84,NW,323,9.0,13.0,92,0.00,,,0.11,Wunderground v.1.15,2013-02-19 09:30:00,
2013-02-19 04:34:00,36.5,34.4,29.84,WNW,295,6.0,15.0,92,0.00,,,0.11,Wunderground v.1.15,2013-02-19 09:34:00,
2013-02-19 04:35:00,36.6,34.5,29.84,NW,313,5.0,15.0,92,0.00,,,0.11,Wunderground v.1.15,2013-02-19 09:35:00,
2013-02-19 04:39:00,36.6,34.5,29.85,West,271,9.0,20.0,92,0.00,,,0.11,Wunderground v.1.15,2013-02-19 09:39:00,
2013-02-19 04:40:00,36.6,34.5,29.85,WNW,284,4.0,10.0,92,0.00,,,0.11,Wunderground v.1.15,2013-02-19 09:40:00,
2013-02-19 04:41:00,36.6,34.5,29.85,NW,311,6.0,10.0,92,0.00,,,0.11,Wunderground v.1.15,2013-02-19 09:41:00,
2013-02-19 04:44:00,36.5,34.4,29.85,WNW,294,3.0,16.0,92,0.00,,,0.11,Wunderground v.1.15,2013-02-19 09:44:00,
2013-02-19 04:45:00,36.5,34.4,29.85,West,280,5.0,16.0,92,0.00,,,0.11,Wunderground v.1.15,2013-02-19 09:45:00,
2013-02-19 04:46:00,36.5,34.4,29.85,WSW,246,7.0,16.0,92,0.00,,,0.11,Wunderground v.1.15,2013-02-19 09:46:00,
2013-02-19 04:49:00,36.5,34.4,29.85,NW,323,3.0,16.0,92,0.00,,,0.11,Wunderground v.1.15,2013-02-19 09:49:00,
2013-02-19 04:50:00,36.5,34.4,29.85,West,268,12.0,12.0,92,0.00,,,0.11,Wunderground v.1.15,2013-02-19 09:50:00,
2013-02-19 04:51:00,36.5,34.4,29.85,NNW,329,2.0,12.0,92,0.00,,,0.11,Wunderground v.1.15,2013-02-19 09:51:00,
2013-02-19 04:55:00,36.4,34.3,29.86,WNW,302,3.0,12.0,92,0.00,,,0.11,Wunderground v.1.15,2013-02-19 09:55:00,
2013-02-19 04:56:00,36.4,34.3,29.86,West,265,1.0,12.0,92,0.00,,,0.11,Wunderground v.1.15,2013-02-19 09:56:00,
2013-02-19 04:57:00,36.4,34.3,29.86,North,1,5.0,12.0,92,0.00,,,0.11,Wunderground v.1.15,2013-02-19 09:57:00,
2013-02-19 05:00:00,36.4,34.3,29.86,NW,325,10.0,10.0,92,0.00,,,0.11,Wunderground v.1.15,2013-02-19 10:00:00,
2013-02-19 05:01:00,36.4,34.3,29.86,NNW,338,5.0,11.0,92,0.00,,,0.11,Wunderground v.1.15,2013-02-19 10:01:00,
2013-02-19 05:03:00,36.4,34.3,29.86,WNW,286,4.0,11.0,92,0.00,,,0.11,Wunderground v.1.15,2013-02-19 10:03:00,
2013-02-19 05:05:00,36.4,34.3,29.86,NNW,328,6.0,11.0,92,0.00,,,0.11,Wunderground v.1.15,2013-02-19 10:05:00,
2013-02-19 05:06:00,36.4,34.3,29.86,NW,306,10.0,11.0,92,0.00,,,0.11,Wunderground v.1.15,2013-02-19 10:06:00,
2013-02-19 05:08:00,36.4,34.3,29.86,NW,307,5.0,11.0,92,0.00,,,0.11,Wunderground v.1.15,2013-02-19 10:08:00,
2013-02-19 05:10:00,36.3,34.2,29.86,NW,320,10.0,14.0,92,0.00,,,0.11,Wunderground v.1.15,2013-02-19 10:10:00,
2013-02-19 05:11:00,36.2,34.1,29.86,WNW,301,4.0,14.0,92,0.00,,,0.11,Wunderground v.1.15,2013-02-19 10:11:00,
2013-02-19 05:12:00,36.2,33.8,29.86,WSW,255,10.0,14.0,91,0.00,,,0.11,Wunderground v.1.15,2013-02-19 10:12:00,
2013-02-19 05:13:00,36.2,33.8,29.86,WNW,296,4.0,14.0,91,0.00,,,0.11,Wunderground v.1.15,2013-02-19 10:13:00,
2013-02-19 05:15:00,36.2,33.8,29.86,WSW,251,8.0,14.0,91,0.00,,,0.11,Wunderground v.1.15,2013-02-19 10:15:00,
2013-02-19 05:16:00,36.1,33.7,29.86,NNW,341,3.0,14.0,91,0.00,,,0.11,Wunderground v.1.15,2013-02-19 10:16:00,
2013-02-19 05:17:00,36.2,33.8,29.86,NNW,328,3.0,14.0,91,0.00,,,0.11,Wunderground v.1.15,2013-02-19 10:17:00,
2013-02-19 05:18:00,36.1,33.7,29.86,NW,305,2.0,14.0,91,0.00,,,0.11,Wunderground v.1.15,2013-02-19 10:18:00,
2013-02-19 05:20:00,36.1,33.5,29.86,NW,318,4.0,5.0,90,0.00,,,0.11,Wunderground v.1.15,2013-02-19 10:20:00,
2013-02-19 05:21:00,36.1,33.5,29.86,WSW,250,13.0,16.0,90,0.00,,,0.11,Wunderground v.1.15,2013-02-19 10:21:00,
2013-02-19 05:22:00,36.0,33.4,29.86,NW,311,4.0,16.0,90,0.00,,,0.11,Wunderground v.1.15,2013-02-19 10:22:00,
2013-02-19 05:23:00,36.0,33.4,29.87,NW,309,4.0,16.0,90,0.00,,,0.11,Wunderground v.1.15,2013-02-19 10:23:00,
2013-02-19 05:25:00,35.9,33.3,29.87,West,260,0.0,16.0,90,0.00,,,0.11,Wunderground v.1.15,2013-02-19 10:25:00,
2013-02-19 05:26:00,36.0,33.4,29.87,WNW,294,3.0,16.0,90,0.00,,,0.11,Wunderground v.1.15,2013-02-19 10:26:00,
2013-02-19 05:27:00,35.9,33.3,29.87,WNW,290,2.0,16.0,90,0.00,,,0.11,Wunderground v.1.15,2013-02-19 10:27:00,
2013-02-19 05:29:00,35.9,33.3,29.87,NW,311,4.0,16.0,90,0.00,,,0.11,Wunderground v.1.15,2013-02-19 10:29:00,
2013-02-19 05:30:00,35.9,33.3,29.87,West,274,13.0,13.0,90,0.00,,,0.11,Wunderground v.1.15,2013-02-19 10:30:00,
2013-02-19 05:31:00,35.8,32.9,29.87,NW,323,0.0,13.0,89,0.00,,,0.11,Wunderground v.1.15,2013-02-19 10:31:00,
2013-02-19 05:32:00,35.8,32.9,29.87,NW,321,4.0,13.0,89,0.00,,,0.11,Wunderground v.1.15,2013-02-19 10:32:00,
2013-02-19 05:34:00,35.7,32.8,29.87,NW,319,3.0,13.0,89,0.00,,,0.11,Wunderground v.1.15,2013-02-19 10:34:00,
2013-02-19 05:35:00,35.8,32.9,29.88,West,259,10.0,13.0,89,0.00,,,0.11,Wunderground v.1.15,2013-02-19 10:35:00,
2013-02-19 05:36:00,35.7,32.8,29.88,NNW,338,9.0,13.0,89,0.00,,,0.11,Wunderground v.1.15,2013-02-19 10:36:00,
2013-02-19 05:37:00,35.7,32.8,29.88,NW,318,4.0,13.0,89,0.00,,,0.11,Wunderground v.1.15,2013-02-19 10:37:00,
2013-02-19 05:39:00,35.7,32.8,29.88,SW,226,1.0,13.0,89,0.00,,,0.11,Wunderground v.1.15,2013-02-19 10:39:00,
2013-02-19 05:40:00,35.7,32.8,29.88,WSW,238,9.0,9.0,89,0.00,,,0.11,Wunderground v.1.15,2013-02-19 10:40:00,
2013-02-19 05:41:00,35.6,32.7,29.88,WNW,290,5.0,9.0,89,0.00,,,0.11,Wunderground v.1.15,2013-02-19 10:41:00,
2013-02-19 05:42:00,35.6,32.7,29.88,NW,310,1.0,9.0,89,0.00,,,0.11,Wunderground v.1.15,2013-02-19 10:42:00,
2013-02-19 05:45:00,35.5,32.6,29.88,WNW,294,3.0,10.0,89,0.00,,,0.11,Wunderground v.1.15,2013-02-19 10:45:00,
2013-02-19 05:46:00,35.5,32.6,29.88,WNW,293,2.0,10.0,89,0.00,,,0.11,Wunderground v.1.15,2013-02-19 10:46:00,
2013-02-19 05:47:00,35.4,32.5,29.88,West,261,4.0,10.0,89,0.00,,,0.11,Wunderground v.1.15,2013-02-19 10:47:00,
2013-02-19 05:50:00,35.3,32.4,29.88,NW,310,8.0,8.0,89,0.00,,,0.11,Wunderground v.1.15,2013-02-19 10:50:00,
2013-02-19 05:51:00,35.3,32.4,29.88,WNW,290,2.0,8.0,89,0.00,,,0.11,Wunderground v.1.15,2013-02-19 10:51:00,
2013-02-19 05:52:00,35.2,32.3,29.88,NW,318,6.0,9.0,89,0.00,,,0.11,Wunderground v.1.15,2013-02-19 10:52:00,
2013-02-19 05:55:00,35.1,32.2,29.88,NW,314,3.0,12.0,89,0.00,,,0.11,Wunderground v.1.15,2013-02-19 10:55:00,
2013-02-19 05:56:00,35.1,32.2,29.88,West,272,3.0,12.0,89,0.00,,,0.11,Wunderground v.1.15,2013-02-19 10:56:00,
2013-02-19 05:57:00,35.1,31.9,29.88,NW,313,2.0,12.0,88,0.00,,,0.11,Wunderground v.1.15,2013-02-19 10:57:00,
2013-02-19 06:00:00,35.0,31.8,29.89,West,271,12.0,12.0,88,0.00,,,0.11,Wunderground v.1.15,2013-02-19 11:00:00,
2013-02-19 06:01:00,34.9,31.7,29.89,WNW,283,7.0,12.0,88,0.00,,,0.11,Wunderground v.1.15,2013-02-19 11:01:00,
2013-02-19 06:03:00,34.8,31.6,29.89,NW,305,4.0,12.0,88,0.00,,,0.11,Wunderground v.1.15,2013-02-19 11:03:00,
2013-02-19 06:05:00,34.7,31.5,29.89,NW,320,6.0,14.0,88,0.00,,,0.11,Wunderground v.1.15,2013-02-19 11:05:00,
2013-02-19 06:06:00,34.6,31.4,29.89,WNW,292,3.0,14.0,88,0.00,,,0.11,Wunderground v.1.15,2013-02-19 11:06:00,
2013-02-19 06:08:00,34.6,31.4,29.89,WNW,302,7.0,14.0,88,0.00,,,0.11,Wunderground v.1.15,2013-02-19 11:08:00,
2013-02-19 06:10:00,34.4,31.2,29.89,West,276,3.0,6.0,88,0.00,,,0.11,Wunderground v.1.15,2013-02-19 11:10:00,
2013-02-19 06:11:00,34.4,31.2,29.89,WNW,292,7.0,9.0,88,0.00,,,0.11,Wunderground v.1.15,2013-02-19 11:11:00,
2013-02-19 06:13:00,34.4,31.2,29.89,NW,310,6.0,13.0,88,0.00,,,0.11,Wunderground v.1.15,2013-02-19 11:13:00,
2013-02-19 06:15:00,34.4,31.2,29.89,NW,314,6.0,14.0,88,0.00,,,0.11,Wunderground v.1.15,2013-02-19 11:15:00,
2013-02-19 06:16:00,34.4,31.2,29.90,SW,236,10.0,14.0,88,0.00,,,0.11,Wunderground v.1.15,2013-02-19 11:16:00,
2013-02-19 06:18:00,34.2,30.7,29.89,NW,311,4.0,14.0,87,0.00,,,0.11,Wunderground v.1.15,2013-02-19 11:18:00,
2013-02-19 06:20:00,34.1,30.6,29.89,NNW,348,5.0,11.0,87,0.00,,,0.11,Wunderground v.1.15,2013-02-19 11:20:00,
2013-02-19 06:21:00,34.0,30.3,29.90,West,266,2.0,11.0,86,0.00,,,0.11,Wunderground v.1.15,2013-02-19 11:21:00,
2013-02-19 06:23:00,34.0,30.3,29.90,WNW,303,5.0,11.0,86,0.00,,,0.11,Wunderground v.1.15,2013-02-19 11:23:00,
2013-02-19 06:25:00,33.9,30.2,29.90,NW,306,2.0,16.0,86,0.00,,,0.11,Wunderground v.1.15,2013-02-19 11:25:00,
2013-02-19 06:26:00,33.9,30.4,29.90,West,264,10.0,16.0,87,0.00,,,0.11,Wunderground v.1.15,2013-02-19 11:26:00,
2013-02-19 06:28:00,33.8,30.3,29.90,West,279,6.0,16.0,87,0.00,,,0.11,Wunderground v.1.15,2013-02-19 11:28:00,
2013-02-19 06:29:00,33.7,30.2,29.91,WNW,290,6.0,16.0,87,0.00,,,0.11,Wunderground v.1.15,2013-02-19 11:29:00,
2013-02-19 06:30:00,33.6,29.9,29.91,WNW,290,3.0,7.0,86,0.00,,,0.11,Wunderground v.1.15,2013-02-19 11:30:00,
2013-02-19 06:32:00,33.6,29.9,29.91,WNW,282,3.0,12.0,86,0.00,,,0.11,Wunderground v.1.15,2013-02-19 11:32:00,
2013-02-19 06:33:00,33.5,29.8,29.91,West,261,4.0,12.0,86,0.00,,,0.11,Wunderground v.1.15,2013-02-19 11:33:00,
2013-02-19 06:34:00,33.5,29.8,29.91,WNW,285,5.0,12.0,86,0.00,,,0.11,Wunderground v.1.15,2013-02-19 11:34:00,
2013-02-19 06:36:00,33.4,29.4,29.91,WNW,284,4.0,12.0,85,0.00,,,0.11,Wunderground v.1.15,2013-02-19 11:36:00,
2013-02-19 06:37:00,33.3,29.3,29.91,West,261,3.0,12.0,85,0.00,,,0.11,Wunderground v.1.15,2013-02-19 11:37:00,
2013-02-19 06:38:00,33.1,29.1,29.91,WSW,252,15.0,16.0,85,0.00,,,0.11,Wunderground v.1.15,2013-02-19 11:38:00,
2013-02-19 06:39:00,33.1,28.8,29.91,NW,322,7.0,17.0,84,0.00,,,0.11,Wunderground v.1.15,2013-02-19 11:39:00,
2013-02-19 06:41:00,32.9,28.3,29.91,West,274,9.0,11.0,83,0.00,,,0.11,Wunderground v.1.15,2013-02-19 11:41:00,
2013-02-19 06:42:00,32.8,28.2,29.91,WNW,288,7.0,23.0,83,0.00,,,0.11,Wunderground v.1.15,2013-02-19 11:42:00,
2013-02-19 06:44:00,32.7,28.1,29.91,WNW,292,4.0,23.0,83,0.00,,,0.11,Wunderground v.1.15,2013-02-19 11:44:00,
2013-02-19 06:46:00,32.6,28.0,29.91,SW,228,14.0,23.0,83,0.00,,,0.11,Wunderground v.1.15,2013-02-19 11:46:00,
2013-02-19 06:47:00,32.5,27.6,29.92,WNW,301,3.0,23.0,82,0.00,,,0.11,Wunderground v.1.15,2013-02-19 11:47:00,
2013-02-19 06:49:00,32.5,27.6,29.92,West,268,5.0,23.0,82,0.00,,,0.11,Wunderground v.1.15,2013-02-19 11:49:00,
2013-02-19 06:51:00,32.4,27.5,29.92,WSW,251,10.0,14.0,82,0.00,,,0.11,Wunderground v.1.15,2013-02-19 11:51:00,
2013-02-19 06:52:00,32.4,27.5,29.92,NW,307,9.0,14.0,82,0.00,,,0.11,Wunderground v.1.15,2013-02-19 11:52:00,
2013-02-19 06:54:00,32.3,27.4,29.92,West,274,15.0,15.0,82,0.00,,,0.11,Wunderground v.1.15,2013-02-19 11:54:00,
2013-02-19 06:57:00,32.3,27.1,29.92,West,276,11.0,18.0,81,0.00,,,0.11,Wunderground v.1.15,2013-02-19 11:57:00,
2013-02-19 06:59:00,32.2,27.0,29.92,WSW,255,14.0,18.0,81,0.00,,,0.11,Wunderground v.1.15,2013-02-19 11:59:00,
2013-02-19 07:02:00,32.2,27.0,29.92,NW,306,7.0,14.0,81,0.00,,,0.11,Wunderground v.1.15,2013-02-19 12:02:00,
2013-02-19 07:04:00,32.2,27.0,29.92,West,259,3.0,14.0,81,0.00,,,0.11,Wunderground v.1.15,2013-02-19 12:04:00,
2013-02-19 07:07:00,32.2,27.0,29.92,NW,311,1.0,15.0,81,0.00,,,0.11,Wunderground v.1.15,2013-02-19 12:07:00,
2013-02-19 07:09:00,32.2,26.7,29.92,WNW,296,1.0,15.0,80,0.00,,,0.11,Wunderground v.1.15,2013-02-19 12:09:00,
2013-02-19 07:12:00,32.2,27.0,29.92,WNW,303,2.0,10.0,81,0.00,,,0.11,Wunderground v.1.15,2013-02-19 12:12:00,
2013-02-19 07:15:00,32.1,26.9,29.92,WSW,250,5.0,10.0,81,0.00,,,0.11,Wunderground v.1.15,2013-02-19 12:15:00,
2013-02-19 07:17:00,32.1,26.9,29.92,West,271,6.0,10.0,81,0.00,,,0.11,Wunderground v.1.15,2013-02-19 12:17:00,
2013-02-19 07:18:00,32.1,26.9,29.92,West,271,4.0,10.0,81,0.00,,,0.11,Wunderground v.1.15,2013-02-19 12:18:00,
2013-02-19 07:20:00,32.1,26.6,29.92,WNW,290,4.0,6.0,80,0.00,,,0.11,Wunderground v.1.15,2013-02-19 12:20:00,
2013-02-19 07:22:00,32.1,26.9,29.92,West,267,2.0,7.0,81,0.00,,,0.11,Wunderground v.1.15,2013-02-19 12:22:00,
2013-02-19 07:23:00,32.1,26.9,29.92,West,276,4.0,7.0,81,0.00,,,0.11,Wunderground v.1.15,2013-02-19 12:23:00,
2013-02-19 07:25:00,32.1,26.6,29.92,WNW,284,3.0,14.0,80,0.00,,,0.11,Wunderground v.1.15,2013-02-19 12:25:00,
2013-02-19 07:27:00,32.1,26.6,29.92,WNW,288,7.0,14.0,80,0.00,,,0.11,Wunderground v.1.15,2013-02-19 12:27:00,
2013-02-19 07:28:00,32.1,26.6,29.92,West,276,8.0,14.0,80,0.00,,,0.11,Wunderground v.1.15,2013-02-19 12:28:00,
2013-02-19 07:31:00,32.1,26.6,29.93,West,263,5.0,5.0,80,0.00,,,0.11,Wunderground v.1.15,2013-02-19 12:31:00,
2013-02-19 07:32:00,32.1,26.6,29.92,West,268,3.0,9.0,80,0.00,,,0.11,Wunderground v.1.15,2013-02-19 12:32:00,
2013-02-19 07:33:00,32.1,26.6,29.92,West,268,4.0,9.0,80,0.00,,,0.11,Wunderground v.1.15,2013-02-19 12:33:00,
2013-02-19 07:36:00,32.1,26.9,29.92,West,272,5.0,9.0,81,0.00,,,0.11,Wunderground v.1.15,2013-02-19 12:36:00,
2013-02-19 07:38:00,32.1,26.6,29.92,WNW,288,0.0,10.0,80,0.00,,,0.11,Wunderground v.1.15,2013-02-19 12:38:00,
2013-02-19 07:41:00,32.1,26.6,29.93,West,276,4.0,9.0,80,0.00,,,0.11,Wunderground v.1.15,2013-02-19 12:41:00,
2013-02-19 07:43:00,32.1,26.6,29.93,West,265,0.0,9.0,80,0.00,,,0.11,Wunderground v.1.15,2013-02-19 12:43:00,
2013-02-19 07:46:00,32.1,26.9,29.93,WNW,303,3.0,9.0,81,0.00,,,0.11,Wunderground v.1.15,2013-02-19 12:46:00,
2013-02-19 07:48:00,32.1,26.9,29.93,WNW,287,5.0,9.0,81,0.00,,,0.11,Wunderground v.1.15,2013-02-19 12:48:00,
2013-02-19 07:49:00,32.2,27.0,29.93,WNW,296,3.0,9.0,81,0.00,,,0.11,Wunderground v.1.15,2013-02-19 12:49:00,
2013-02-19 07:51:00,32.1,26.6,29.93,West,275,5.0,9.0,80,0.00,,,0.11,Wunderground v.1.15,2013-02-19 12:51:00,
2013-02-19 07:52:00,32.1,26.6,29.93,West,263,12.0,12.0,80,0.00,,,0.11,Wunderground v.1.15,2013-02-19 12:52:00,
2013-02-19 07:53:00,32.1,26.6,29.93,West,259,4.0,12.0,80,0.00,,,0.11,Wunderground v.1.15,2013-02-19 12:53:00,
2013-02-19 07:54:00,32.1,26.6,29.93,West,259,2.0,12.0,80,0.00,,,0.11,Wunderground v.1.15,2013-02-19 12:54:00,
2013-02-19 07:56:00,32.1,26.9,29.93,WSW,258,4.0,12.0,81,0.00,,,0.11,Wunderground v.1.15,2013-02-19 12:56:00,
2013-02-19 07:57:00,32.1,26.9,29.93,WNW,282,4.0,12.0,81,0.00,,,0.11,Wunderground v.1.15,2013-02-19 12:57:00,
2013-02-19 07:58:00,32.1,26.6,29.94,WNW,294,6.0,12.0,80,0.00,,,0.11,Wunderground v.1.15,2013-02-19 12:58:00,
2013-02-19 07:59:00,32.1,26.6,29.94,West,259,4.0,12.0,80,0.00,,,0.11,Wunderground v.1.15,2013-02-19 12:59:00,
2013-02-19 08:01:00,32.1,26.6,29.94,WNW,284,4.0,10.0,80,0.00,,,0.11,Wunderground v.1.15,2013-02-19 13:01:00,
2013-02-19 08:02:00,32.1,26.6,29.94,WNW,291,4.0,10.0,80,0.00,,,0.11,Wunderground v.1.15,2013-02-19 13:02:00,
2013-02-19 08:03:00,32.1,26.6,29.94,WSW,257,4.0,10.0,80,0.00,,,0.11,Wunderground v.1.15,2013-02-19 13:03:00,
2013-02-19 08:04:00,32.1,26.6,29.94,WSW,253,5.0,10.0,80,0.00,,,0.11,Wunderground v.1.15,2013-02-19 13:04:00,
2013-02-19 08:07:00,32.2,26.7,29.94,West,261,4.0,10.0,80,0.00,,,0.11,Wunderground v.1.15,2013-02-19 13:07:00,
2013-02-19 08:08:00,32.2,26.7,29.94,WSW,242,6.0,10.0,80,0.00,,,0.11,Wunderground v.1.15,2013-02-19 13:08:00,
2013-02-19 08:09:00,32.2,26.7,29.94,WSW,249,6.0,10.0,80,0.00,,,0.11,Wunderground v.1.15,2013-02-19 13:09:00,
2013-02-19 08:12:00,32.2,26.7,29.95,WNW,294,5.0,7.0,80,0.00,,,0.11,Wunderground v.1.15,2013-02-19 13:12:00,
2013-02-19 08:14:00,32.2,26.7,29.95,West,271,5.0,10.0,80,0.00,,,0.11,Wunderground v.1.15,2013-02-19 13:14:00,
2013-02-19 08:17:00,32.3,26.8,29.95,NW,314,6.0,12.0,80,0.00,,,0.11,Wunderground v.1.15,2013-02-19 13:17:00,
2013-02-19 08:19:00,32.3,26.8,29.95,West,275,4.0,15.0,80,0.00,,,0.11,Wunderground v.1.15,2013-02-19 13:19:00,
2013-02-19 08:22:00,32.3,26.8,29.95,SW,226,12.0,12.0,80,0.00,,,0.11,Wunderground v.1.15,2013-02-19 13:22:00,
2013-02-19 08:24:00,32.3,26.8,29.95,WNW,290,10.0,13.0,80,0.00,,,0.11,Wunderground v.1.15,2013-02-19 13:24:00,
2013-02-19 08:27:00,32.3,26.5,29.95,West,271,8.0,15.0,79,0.00,,,0.11,Wunderground v.1.15,2013-02-19 13:27:00,
2013-02-19 08:29:00,32.3,26.5,29.95,SW,222,2.0,15.0,79,0.00,,,0.11,Wunderground v.1.15,2013-02-19 13:29:00,
2013-02-19 08:32:00,32.3,26.2,29.95,WNW,296,13.0,21.0,78,0.00,,,0.11,Wunderground v.1.15,2013-02-19 13:32:00,
2013-02-19 08:34:00,32.2,26.1,29.96,WNW,287,6.0,21.0,78,0.00,,,0.11,Wunderground v.1.15,2013-02-19 13:34:00,
2013-02-19 08:37:00,32.2,26.1,29.96,SW,236,9.0,21.0,78,0.00,,,0.11,Wunderground v.1.15,2013-02-19 13:37:00,
2013-02-19 08:39:00,32.1,26.0,29.96,WSW,240,9.0,21.0,78,0.00,,,0.11,Wunderground v.1.15,2013-02-19 13:39:00,
2013-02-19 08:42:00,32.1,25.7,29.96,WSW,249,7.0,15.0,77,0.00,,,0.11,Wunderground v.1.15,2013-02-19 13:42:00,
2013-02-19 08:43:00,32.1,25.7,29.96,WNW,301,6.0,15.0,77,0.00,,,0.11,Wunderground v.1.15,2013-02-19 13:43:00,
2013-02-19 08:44:00,32.1,25.7,29.96,West,274,4.0,15.0,77,0.00,,,0.11,Wunderground v.1.15,2013-02-19 13:44:00,
2013-02-19 08:47:00,32.1,25.7,29.96,WNW,298,3.0,15.0,77,0.00,,,0.11,Wunderground v.1.15,2013-02-19 13:47:00,
2013-02-19 08:48:00,32.0,25.3,29.96,WNW,288,7.0,15.0,76,0.00,,,0.11,Wunderground v.1.15,2013-02-19 13:48:00,
2013-02-19 08:49:00,32.0,25.3,29.96,West,279,4.0,15.0,76,0.00,,,0.11,Wunderground v.1.15,2013-02-19 13:49:00,
2013-02-19 08:52:00,32.0,25.6,29.97,West,273,7.0,11.0,77,0.00,,,0.11,Wunderground v.1.15,2013-02-19 13:52:00,
2013-02-19 08:53:00,32.1,25.4,29.96,West,269,12.0,16.0,76,0.00,,,0.11,Wunderground v.1.15,2013-02-19 13:53:00,
2013-02-19 08:55:00,32.0,25.3,29.96,West,274,4.0,16.0,76,0.00,,,0.11,Wunderground v.1.15,2013-02-19 13:55:00,
2013-02-19 08:58:00,32.0,25.3,29.97,West,271,6.0,17.0,76,0.00,,,0.11,Wunderground v.1.15,2013-02-19 13:58:00,
2013-02-19 08:59:00,32.0,25.3,29.97,WSW,241,5.0,17.0,76,0.00,,,0.11,Wunderground v.1.15,2013-02-19 13:59:00,
2013-02-19 09:00:00,32.0,25.3,29.97,West,261,2.0,6.0,76,0.00,,,0.11,Wunderground v.1.15,2013-02-19 14:00:00,
2013-02-19 09:03:00,32.0,24.6,29.97,West,264,6.0,14.0,74,0.00,,,0.11,Wunderground v.1.15,2013-02-19 14:03:00,
2013-02-19 09:04:00,32.0,25.3,29.97,WSW,256,6.0,14.0,76,0.00,,,0.11,Wunderground v.1.15,2013-02-19 14:04:00,
2013-02-19 09:05:00,32.0,25.0,29.97,WSW,245,12.0,14.0,75,0.00,,,0.11,Wunderground v.1.15,2013-02-19 14:05:00,
2013-02-19 09:08:00,32.0,24.3,29.97,WSW,242,15.0,18.0,73,0.00,,,0.11,Wunderground v.1.15,2013-02-19 14:08:00,
2013-02-19 09:09:00,31.9,24.2,29.97,West,266,3.0,19.0,73,0.00,,,0.11,Wunderground v.1.15,2013-02-19 14:09:00,
2013-02-19 09:10:00,31.9,24.6,29.97,West,259,13.0,13.0,74,0.00,,,0.11,Wunderground v.1.15,2013-02-19 14:10:00,
2013-02-19 09:13:00,31.9,24.9,29.97,West,260,3.0,13.0,75,0.00,,,0.11,Wunderground v.1.15,2013-02-19 14:13:00,
2013-02-19 09:14:00,32.0,25.0,29.98,West,269,4.0,13.0,75,0.00,,,0.11,Wunderground v.1.15,2013-02-19 14:14:00,
2013-02-19 09:15:00,32.0,24.6,29.97,WNW,293,4.0,13.0,74,0.00,,,0.11,Wunderground v.1.15,2013-02-19 14:15:00,
2013-02-19 09:18:00,31.9,24.6,29.97,West,275,8.0,13.0,74,0.00,,,0.11,Wunderground v.1.15,2013-02-19 14:18:00,
2013-02-19 09:19:00,31.9,24.6,29.97,West,279,6.0,13.0,74,0.00,,,0.11,Wunderground v.1.15,2013-02-19 14:19:00,
2013-02-19 09:20:00,31.9,24.9,29.97,WSW,242,7.0,7.0,75,0.00,,,0.11,Wunderground v.1.15,2013-02-19 14:20:00,
2013-02-19 09:21:00,31.9,24.9,29.98,West,261,14.0,14.0,75,0.00,,,0.11,Wunderground v.1.15,2013-02-19 14:21:00,
2013-02-19 09:23:00,31.8,24.5,29.98,NW,307,6.0,18.0,74,0.00,,,0.11,Wunderground v.1.15,2013-02-19 14:23:00,
2013-02-19 09:24:00,31.8,24.8,29.98,WNW,289,3.0,18.0,75,0.00,,,0.11,Wunderground v.1.15,2013-02-19 14:24:00,
2013-02-19 09:26:00,31.8,24.5,29.98,West,259,5.0,18.0,74,0.00,,,0.11,Wunderground v.1.15,2013-02-19 14:26:00,
2013-02-19 09:28:00,31.7,24.7,29.98,SSW,209,3.0,18.0,75,0.00,,,0.11,Wunderground v.1.15,2013-02-19 14:28:00,
2013-02-19 09:29:00,31.7,24.7,29.98,WSW,257,10.0,18.0,75,0.00,,,0.11,Wunderground v.1.15,2013-02-19 14:29:00,
2013-02-19 09:31:00,31.7,24.7,29.98,WSW,251,6.0,16.0,75,0.00,,,0.11,Wunderground v.1.15,2013-02-19 14:31:00,
2013-02-19 09:33:00,31.6,23.9,29.98,WNW,285,3.0,19.0,73,0.00,,,0.11,Wunderground v.1.15,2013-02-19 14:33:00,
2013-02-19 09:34:00,31.6,24.3,29.98,WSW,258,16.0,19.0,74,0.00,,,0.11,Wunderground v.1.15,2013-02-19 14:34:00,
2013-02-19 09:36:00,31.6,23.9,29.98,WSW,252,7.0,19.0,73,0.00,,,0.11,Wunderground v.1.15,2013-02-19 14:36:00,
2013-02-19 09:38:00,31.5,23.8,29.98,West,271,3.0,19.0,73,0.00,,,0.11,Wunderground v.1.15,2013-02-19 14:38:00,
2013-02-19 09:40:00,31.6,24.3,29.98,West,266,3.0,9.0,74,0.00,,,0.11,Wunderground v.1.15,2013-02-19 14:40:00,
2013-02-19 09:41:00,31.6,24.6,29.98,West,271,9.0,9.0,75,0.00,,,0.11,Wunderground v.1.15,2013-02-19 14:41:00,
2013-02-19 09:43:00,31.7,24.7,29.98,West,276,10.0,12.0,75,0.00,,,0.11,Wunderground v.1.15,2013-02-19 14:43:00,
2013-02-19 09:45:00,31.7,24.4,29.98,WSW,253,9.0,14.0,74,0.00,,,0.11,Wunderground v.1.15,2013-02-19 14:45:00,
2013-02-19 09:46:00,31.7,24.4,29.98,West,269,10.0,14.0,74,0.00,,,0.11,Wunderground v.1.15,2013-02-19 14:46:00,
2013-02-19 09:49:00,31.6,23.6,29.98,NW,304,7.0,22.0,72,0.00,,,0.11,Wunderground v.1.15,2013-02-19 14:49:00,
2013-02-19 09:50:00,31.6,23.9,29.98,WNW,294,11.0,13.0,73,0.00,,,0.11,Wunderground v.1.15,2013-02-19 14:50:00,
2013-02-19 09:51:00,31.6,23.9,29.98,WSW,242,10.0,16.0,73,0.00,,,0.11,Wunderground v.1.15,2013-02-19 14:51:00,
2013-02-19 09:52:00,31.6,23.9,29.98,West,264,13.0,18.0,73,0.00,,,0.11,Wunderground v.1.15,2013-02-19 14:52:00,
2013-02-19 09:54:00,31.6,23.6,29.98,WSW,238,5.0,18.0,72,0.00,,,0.11,Wunderground v.1.15,2013-02-19 14:54:00,
2013-02-19 09:55:00,31.5,23.8,29.98,West,272,19.0,22.0,73,0.00,,,0.11,Wunderground v.1.15,2013-02-19 14:55:00,
2013-02-19 09:56:00,31.5,23.8,29.98,West,275,4.0,23.0,73,0.00,,,0.11,Wunderground v.1.15,2013-02-19 14:56:00,
2013-02-19 09:57:00,31.6,23.9,29.98,West,268,6.0,23.0,73,0.00,,,0.11,Wunderground v.1.15,2013-02-19 14:57:00,
2013-02-19 09:59:00,31.6,24.3,29.99,SW,221,14.0,23.0,74,0.00,,,0.11,Wunderground v.1.15,2013-02-19 14:59:00,
2013-02-19 10:01:00,31.6,23.9,29.98,West,280,4.0,14.0,73,0.00,,,0.11,Wunderground v.1.15,2013-02-19 15:01:00,
2013-02-19 10:02:00,31.6,23.9,29.98,West,275,4.0,14.0,73,0.00,,,0.11,Wunderground v.1.15,2013-02-19 15:02:00,
2013-02-19 10:04:00,31.7,24.4,29.99,WSW,256,10.0,14.0,74,0.00,,,0.11,Wunderground v.1.15,2013-02-19 15:04:00,
2013-02-19 10:06:00,31.7,24.4,29.99,WSW,253,2.0,14.0,74,0.00,,,0.11,Wunderground v.1.15,2013-02-19 15:06:00,
2013-02-19 10:07:00,31.9,24.9,29.99,WNW,291,3.0,14.0,75,0.00,,,0.11,Wunderground v.1.15,2013-02-19 15:07:00,
2013-02-19 10:10:00,32.0,25.0,29.99,West,274,13.0,13.0,75,0.00,,,0.11,Wunderground v.1.15,2013-02-19 15:10:00,
2013-02-19 10:11:00,32.0,24.3,29.99,West,269,15.0,15.0,73,0.00,,,0.11,Wunderground v.1.15,2013-02-19 15:11:00,
2013-02-19 10:12:00,32.0,24.3,29.99,WSW,242,13.0,15.0,73,0.00,,,0.11,Wunderground v.1.15,2013-02-19 15:12:00,
2013-02-19 10:13:00,32.0,24.3,29.99,West,264,4.0,15.0,73,0.00,,,0.11,Wunderground v.1.15,2013-02-19 15:13:00,
2013-02-19 10:15:00,31.9,23.6,29.99,West,265,11.0,20.0,71,0.00,,,0.11,Wunderground v.1.15,2013-02-19 15:15:00,
2013-02-19 10:16:00,31.8,23.5,29.99,WSW,245,20.0,23.0,71,0.00,,,0.11,Wunderground v.1.15,2013-02-19 15:16:00,
2013-02-19 10:17:00,31.7,23.4,29.99,WSW,250,14.0,23.0,71,0.00,,,0.11,Wunderground v.1.15,2013-02-19 15:17:00,
2013-02-19 10:18:00,31.6,23.3,29.99,WSW,256,13.0,23.0,71,0.00,,,0.11,Wunderground v.1.15,2013-02-19 15:18:00,
2013-02-19 10:20:00,31.6,23.3,29.99,WSW,238,12.0,15.0,71,0.00,,,0.11,Wunderground v.1.15,2013-02-19 15:20:00,
2013-02-19 10:21:00,31.6,23.3,29.99,West,268,7.0,17.0,71,0.00,,,0.11,Wunderground v.1.15,2013-02-19 15:21:00,
2013-02-19 10:23:00,31.6,23.6,29.99,WSW,248,13.0,22.0,72,0.00,,,0.11,Wunderground v.1.15,2013-02-19 15:23:00,
2013-02-19 10:26:00,31.6,23.6,29.99,WSW,254,9.0,22.0,72,0.00,,,0.11,Wunderground v.1.15,2013-02-19 15:26:00,
2013-02-19 10:28:00,31.7,24.0,29.99,West,261,16.0,22.0,73,0.00,,,0.11,Wunderground v.1.15,2013-02-19 15:28:00,
2013-02-19 10:31:00,31.8,23.8,29.99,WSW,244,6.0,9.0,72,0.00,,,0.11,Wunderground v.1.15,2013-02-19 15:31:00,
2013-02-19 10:33:00,31.8,23.8,29.99,West,264,7.0,12.0,72,0.00,,,0.11,Wunderground v.1.15,2013-02-19 15:33:00,
2013-02-19 10:34:00,31.9,24.2,29.99,West,264,6.0,12.0,73,0.00,,,0.11,Wunderground v.1.15,2013-02-19 15:34:00,
2013-02-19 10:36:00,32.0,23.7,29.99,WNW,286,7.0,12.0,71,0.00,,,0.11,Wunderground v.1.15,2013-02-19 15:36:00,
2013-02-19 10:39:00,32.0,24.0,29.99,West,281,3.0,12.0,72,0.00,,,0.11,Wunderground v.1.15,2013-02-19 15:39:00,
2013-02-19 10:41:00,32.1,24.1,29.99,WNW,285,7.0,7.0,72,0.00,,,0.11,Wunderground v.1.15,2013-02-19 15:41:00,
2013-02-19 10:42:00,32.1,24.1,30.00,West,277,6.0,12.0,72,0.00,,,0.11,Wunderground v.1.15,2013-02-19 15:42:00,
2013-02-19 10:44:00,32.2,23.5,30.00,West,280,7.0,20.0,70,0.00,,,0.11,Wunderground v.1.15,2013-02-19 15:44:00,
2013-02-19 10:46:00,32.1,23.4,30.00,WNW,291,3.0,20.0,70,0.00,,,0.12,Wunderground v.1.15,2013-02-19 15:46:00,
2013-02-19 10:47:00,32.1,23.1,30.00,WNW,284,5.0,20.0,69,0.00,,,0.12,Wunderground v.1.15,2013-02-19 15:47:00,
2013-02-19 10:49:00,32.2,24.2,30.00,NW,314,4.0,20.0,72,0.00,,,0.12,Wunderground v.1.15,2013-02-19 15:49:00,
2013-02-19 10:51:00,32.4,24.0,30.00,NNW,336,5.0,16.0,71,0.00,,,0.12,Wunderground v.1.15,2013-02-19 15:51:00,
2013-02-19 10:52:00,32.4,24.0,30.00,WNW,290,6.0,16.0,71,0.00,,,0.12,Wunderground v.1.15,2013-02-19 15:52:00,
2013-02-19 10:54:00,32.5,23.8,30.00,NW,323,4.0,20.0,70,0.00,,,0.12,Wunderground v.1.15,2013-02-19 15:54:00,
2013-02-19 10:57:00,32.5,23.8,30.00,WSW,249,6.0,20.0,70,0.00,,,0.12,Wunderground v.1.15,2013-02-19 15:57:00,
2013-02-19 10:59:00,32.5,23.5,30.00,WNW,303,11.0,20.0,69,0.00,,,0.12,Wunderground v.1.15,2013-02-19 15:59:00,
2013-02-19 11:00:00,32.5,23.1,30.00,WNW,294,10.0,20.0,68,0.00,,,0.12,Wunderground v.1.15,2013-02-19 16:00:00,
2013-02-19 11:02:00,32.5,23.5,30.00,NNW,332,4.0,8.0,69,0.00,,,0.12,Wunderground v.1.15,2013-02-19 16:02:00,
2013-02-19 11:04:00,32.6,23.2,30.00,North,350,5.0,12.0,68,0.00,,,0.12,Wunderground v.1.15,2013-02-19 16:04:00,
2013-02-19 11:05:00,32.6,23.2,30.00,West,280,4.0,12.0,68,0.00,,,0.12,Wunderground v.1.15,2013-02-19 16:05:00,
2013-02-19 11:07:00,32.6,23.9,30.00,WNW,286,9.0,14.0,70,0.00,,,0.12,Wunderground v.1.15,2013-02-19 16:07:00,
2013-02-19 11:09:00,32.7,24.0,30.00,West,259,13.0,14.0,70,0.00,,,0.12,Wunderground v.1.15,2013-02-19 16:09:00,
2013-02-19 11:10:00,32.6,23.2,30.00,NW,317,10.0,10.0,68,0.00,,,0.12,Wunderground v.1.15,2013-02-19 16:10:00,
2013-02-19 11:12:00,32.5,23.1,30.00,West,278,6.0,16.0,68,0.00,,,0.12,Wunderground v.1.15,2013-02-19 16:12:00,
2013-02-19 11:14:00,32.5,23.5,30.00,WNW,294,12.0,16.0,69,0.00,,,0.12,Wunderground v.1.15,2013-02-19 16:14:00,
2013-02-19 11:15:00,32.6,23.9,30.00,WNW,282,14.0,16.0,70,0.00,,,0.12,Wunderground v.1.15,2013-02-19 16:15:00,
2013-02-19 11:17:00,32.8,23.7,30.00,WNW,303,8.0,18.0,69,0.00,,,0.12,Wunderground v.1.15,2013-02-19 16:17:00,
2013-02-19 11:18:00,32.8,23.7,30.00,WNW,298,5.0,18.0,69,0.00,,,0.12,Wunderground v.1.15,2013-02-19 16:18:00,
2013-02-19 11:19:00,32.8,23.0,30.00,WNW,283,3.0,18.0,67,0.00,,,0.12,Wunderground v.1.15,2013-02-19 16:19:00,
2013-02-19 11:20:00,32.8,23.4,30.01,WSW,255,9.0,11.0,68,0.00,,,0.12,Wunderground v.1.15,2013-02-19 16:20:00,
2013-02-19 11:22:00,32.9,23.8,30.00,WNW,295,6.0,20.0,69,0.00,,,0.12,Wunderground v.1.15,2013-02-19 16:22:00,
2013-02-19 11:23:00,32.9,23.5,30.00,West,269,6.0,20.0,68,0.00,,,0.12,Wunderground v.1.15,2013-02-19 16:23:00,
2013-02-19 11:24:00,32.9,23.5,30.00,North,1,6.0,20.0,68,0.00,,,0.12,Wunderground v.1.15,2013-02-19 16:24:00,
2013-02-19 11:25:00,33.0,24.3,30.01,WSW,242,8.0,20.0,70,0.00,,,0.12,Wunderground v.1.15,2013-02-19 16:25:00,
2013-02-19 11:27:00,33.2,24.1,30.01,WNW,294,6.0,20.0,69,0.00,,,0.12,Wunderground v.1.15,2013-02-19 16:27:00,
2013-02-19 11:28:00,33.2,24.1,30.01,West,263,12.0,20.0,69,0.00,,,0.12,Wunderground v.1.15,2013-02-19 16:28:00,
2013-02-19 11:30:00,33.4,24.3,30.01,WNW,287,5.0,7.0,69,0.00,,,0.12,Wunderground v.1.15,2013-02-19 16:30:00,
2013-02-19 11:33:00,34.0,25.2,30.01,West,263,4.0,11.0,70,0.00,,,0.12,Wunderground v.1.15,2013-02-19 16:33:00,
2013-02-19 11:35:00,34.4,26.0,30.01,WSW,249,10.0,12.0,71,0.00,,,0.12,Wunderground v.1.15,2013-02-19 16:35:00,
2013-02-19 11:38:00,34.8,25.3,30.01,West,261,10.0,18.0,68,0.00,,,0.12,Wunderground v.1.15,2013-02-19 16:38:00,
2013-02-19 11:39:00,34.8,25.0,30.01,West,261,12.0,18.0,67,0.00,,,0.12,Wunderground v.1.15,2013-02-19 16:39:00,
2013-02-19 11:40:00,35.0,25.5,30.01,West,259,11.0,11.0,68,0.00,,,0.12,Wunderground v.1.15,2013-02-19 16:40:00,
2013-02-19 11:43:00,34.9,25.0,30.01,WNW,282,13.0,16.0,67,0.00,,,0.12,Wunderground v.1.15,2013-02-19 16:43:00,
2013-02-19 11:44:00,34.8,24.2,30.01,NW,318,7.0,16.0,65,0.00,,,0.12,Wunderground v.1.15,2013-02-19 16:44:00,
2013-02-19 11:45:00,34.6,24.8,30.01,West,271,17.0,17.0,67,0.00,,,0.12,Wunderground v.1.15,2013-02-19 16:45:00,
2013-02-19 11:46:00,34.6,24.8,30.01,WSW,255,12.0,17.0,67,0.00,,,0.12,Wunderground v.1.15,2013-02-19 16:46:00,
2013-02-19 11:48:00,34.4,23.8,30.01,West,259,10.0,20.0,65,0.00,,,0.12,Wunderground v.1.15,2013-02-19 16:48:00,
2013-02-19 11:49:00,34.4,24.2,30.01,West,272,11.0,20.0,66,0.00,,,0.12,Wunderground v.1.15,2013-02-19 16:49:00,
2013-02-19 11:51:00,34.3,23.7,30.02,West,263,5.0,13.0,65,0.00,,,0.12,Wunderground v.1.15,2013-02-19 16:51:00,
2013-02-19 11:54:00,34.0,23.5,30.02,WNW,291,11.0,13.0,65,0.00,,,0.12,Wunderground v.1.15,2013-02-19 16:54:00,
2013-02-19 11:56:00,33.7,23.2,30.02,West,269,4.0,18.0,65,0.00,,,0.12,Wunderground v.1.15,2013-02-19 16:56:00,
2013-02-19 11:59:00,33.5,23.0,30.02,West,276,17.0,20.0,65,0.00,,,0.12,Wunderground v.1.15,2013-02-19 16:59:00,
2013-02-19 12:00:00,33.6,22.7,30.02,WNW,294,8.0,10.0,64,0.00,,,0.12,Wunderground v.1.15,2013-02-19 17:00:00,
2013-02-19 12:01:00,33.7,23.5,30.02,West,264,10.0,12.0,66,0.00,,,0.12,Wunderground v.1.15,2013-02-19 17:01:00,
2013-02-19 12:04:00,34.2,23.3,30.02,West,269,17.0,24.0,64,0.00,,,0.12,Wunderground v.1.15,2013-02-19 17:04:00,
2013-02-19 12:05:00,34.3,23.4,30.02,West,271,12.0,24.0,64,0.00,,,0.12,Wunderground v.1.15,2013-02-19 17:05:00,
2013-02-19 12:06:00,34.3,23.4,30.02,WNW,282,7.0,24.0,64,0.00,,,0.12,Wunderground v.1.15,2013-02-19 17:06:00,
2013-02-19 12:10:00,34.6,23.3,30.02,WNW,283,10.0,12.0,63,0.00,,,0.12,Wunderground v.1.15,2013-02-19 17:10:00,
2013-02-19 12:11:00,34.8,23.5,30.02,WSW,242,9.0,12.0,63,0.00,,,0.12,Wunderground v.1.15,2013-02-19 17:11:00,
2013-02-19 12:12:00,35.0,24.0,30.02,WNW,282,16.0,24.0,64,0.00,,,0.12,Wunderground v.1.15,2013-02-19 17:12:00,
2013-02-19 12:15:00,35.3,24.3,30.02,WNW,297,7.0,24.0,64,0.00,,,0.12,Wunderground v.1.15,2013-02-19 17:15:00,
2013-02-19 12:16:00,35.4,24.0,30.02,West,267,4.0,24.0,63,0.00,,,0.12,Wunderground v.1.15,2013-02-19 17:16:00,
2013-02-19 12:17:00,35.6,25.4,30.02,WSW,237,10.0,24.0,66,0.00,,,0.12,Wunderground v.1.15,2013-02-19 17:17:00,
2013-02-19 12:20:00,35.7,23.9,30.02,NW,309,12.0,18.0,62,0.00,,,0.12,Wunderground v.1.15,2013-02-19 17:20:00,
2013-02-19 12:22:00,35.5,23.8,30.02,West,279,12.0,24.0,62,0.00,,,0.12,Wunderground v.1.15,2013-02-19 17:22:00,
2013-02-19 12:25:00,35.7,23.9,30.03,West,267,11.0,24.0,62,0.00,,,0.12,Wunderground v.1.15,2013-02-19 17:25:00,
2013-02-19 12:27:00,35.7,23.6,30.02,NW,326,5.0,24.0,61,0.00,,,0.12,Wunderground v.1.15,2013-02-19 17:27:00,
2013-02-19 12:30:00,36.0,24.2,30.02,WNW,292,15.0,15.0,62,0.00,,,0.12,Wunderground v.1.15,2013-02-19 17:30:00,
2013-02-19 12:32:00,36.0,24.2,30.02,West,264,7.0,15.0,62,0.00,,,0.12,Wunderground v.1.15,2013-02-19 17:32:00,
2013-02-19 12:35:00,35.6,23.5,30.02,WNW,291,3.0,20.0,61,0.00,,,0.12,Wunderground v.1.15,2013-02-19 17:35:00,
2013-02-19 12:36:00,35.6,23.5,30.02,NNW,329,6.0,20.0,61,0.00,,,0.12,Wunderground v.1.15,2013-02-19 17:36:00,
2013-02-19 12:37:00,35.4,22.9,30.02,West,279,13.0,20.0,60,0.00,,,0.12,Wunderground v.1.15,2013-02-19 17:37:00,
2013-02-19 12:41:00,34.4,22.7,30.03,WSW,244,7.0,12.0,62,0.00,,,0.12,Wunderground v.1.15,2013-02-19 17:41:00,
2013-02-19 12:42:00,34.4,23.1,30.03,WNW,290,10.0,13.0,63,0.00,,,0.12,Wunderground v.1.15,2013-02-19 17:42:00,
2013-02-19 12:43:00,34.4,22.7,30.03,West,269,15.0,18.0,62,0.00,,,0.12,Wunderground v.1.15,2013-02-19 17:43:00,
2013-02-19 12:46:00,34.4,23.5,30.03,WSW,244,12.0,19.0,64,0.00,,,0.12,Wunderground v.1.15,2013-02-19 17:46:00,
2013-02-19 12:47:00,34.4,23.1,30.03,WNW,299,12.0,21.0,63,0.00,,,0.12,Wunderground v.1.15,2013-02-19 17:47:00,
2013-02-19 12:48:00,34.4,23.1,30.02,WNW,295,5.0,21.0,63,0.00,,,0.12,Wunderground v.1.15,2013-02-19 17:48:00,
2013-02-19 12:51:00,34.7,22.6,30.03,WNW,296,5.0,13.0,61,0.00,,,0.12,Wunderground v.1.15,2013-02-19 17:51:00,
2013-02-19 12:52:00,34.7,22.6,30.02,WNW,302,5.0,13.0,61,0.00,,,0.12,Wunderground v.1.15,2013-02-19 17:52:00,
2013-02-19 12:53:00,34.6,22.5,30.03,WNW,292,14.0,17.0,61,0.00,,,0.12,Wunderground v.1.15,2013-02-19 17:53:00,
2013-02-19 12:57:00,34.4,23.1,30.03,West,267,6.0,17.0,63,0.00,,,0.12,Wunderground v.1.15,2013-02-19 17:57:00,
2013-02-19 12:58:00,34.4,22.7,30.03,West,272,9.0,17.0,62,0.00,,,0.12,Wunderground v.1.15,2013-02-19 17:58:00,
2013-02-19 13:02:00,34.2,22.5,30.03,NW,313,7.0,15.0,62,0.00,,,0.12,Wunderground v.1.15,2013-02-19 18:02:00,
2013-02-19 13:03:00,34.3,23.4,30.03,NW,318,6.0,15.0,64,0.00,,,0.12,Wunderground v.1.15,2013-02-19 18:03:00,
2013-02-19 13:07:00,34.7,24.1,30.03,WNW,291,1.0,15.0,65,0.00,,,0.12,Wunderground v.1.15,2013-02-19 18:07:00,
2013-02-19 13:08:00,34.8,24.2,30.03,WNW,291,8.0,15.0,65,0.00,,,0.12,Wunderground v.1.15,2013-02-19 18:08:00,
2013-02-19 13:12:00,35.4,24.0,30.03,West,259,9.0,13.0,63,0.00,,,0.12,Wunderground v.1.15,2013-02-19 18:12:00,
2013-02-19 13:13:00,35.4,24.0,30.03,WNW,292,4.0,13.0,63,0.00,,,0.12,Wunderground v.1.15,2013-02-19 18:13:00,
2013-02-19 13:17:00,35.9,24.1,30.03,WNW,282,9.0,21.0,62,0.00,,,0.12,Wunderground v.1.15,2013-02-19 18:17:00,
2013-02-19 13:18:00,36.0,23.8,30.02,West,277,9.0,21.0,61,0.00,,,0.12,Wunderground v.1.15,2013-02-19 18:18:00,
2013-02-19 13:23:00,36.6,24.0,30.03,WNW,288,8.0,18.0,60,0.00,,,0.12,Wunderground v.1.15,2013-02-19 18:23:00,
2013-02-19 13:24:00,36.8,24.2,30.03,SW,226,11.0,18.0,60,0.00,,,0.12,Wunderground v.1.15,2013-02-19 18:24:00,
2013-02-19 13:28:00,36.9,23.9,30.03,West,264,5.0,23.0,59,0.00,,,0.12,Wunderground v.1.15,2013-02-19 18:28:00,
2013-02-19 13:29:00,37.0,24.8,30.03,NNW,340,2.0,23.0,61,0.00,,,0.12,Wunderground v.1.15,2013-02-19 18:29:00,
2013-02-19 13:33:00,36.9,24.3,30.03,NW,320,17.0,17.0,60,0.00,,,0.12,Wunderground v.1.15,2013-02-19 18:33:00,
2013-02-19 13:34:00,36.7,23.7,30.03,NNW,341,5.0,20.0,59,0.00,,,0.12,Wunderground v.1.15,2013-02-19 18:34:00,
2013-02-19 13:38:00,36.4,23.8,30.03,NW,319,5.0,20.0,60,0.00,,,0.12,Wunderground v.1.15,2013-02-19 18:38:00,
2013-02-19 13:39:00,36.4,23.4,30.03,WSW,254,6.0,20.0,59,0.00,,,0.12,Wunderground v.1.15,2013-02-19 18:39:00,
2013-02-19 13:43:00,36.5,23.5,30.03,WNW,287,9.0,15.0,59,0.00,,,0.12,Wunderground v.1.15,2013-02-19 18:43:00,
2013-02-19 13:44:00,36.5,23.1,30.03,NW,313,5.0,15.0,58,0.00,,,0.12,Wunderground v.1.15,2013-02-19 18:44:00,
2013-02-19 13:48:00,36.0,23.0,30.03,West,269,5.0,16.0,59,0.00,,,0.12,Wunderground v.1.15,2013-02-19 18:48:00,
2013-02-19 13:49:00,35.9,23.0,30.03,WNW,284,6.0,16.0,59,0.00,,,0.12,Wunderground v.1.15,2013-02-19 18:49:00,
2013-02-19 13:53:00,35.5,23.0,30.03,NW,311,12.0,17.0,60,0.00,,,0.12,Wunderground v.1.15,2013-02-19 18:53:00,
2013-02-19 13:54:00,35.4,22.9,30.03,WNW,286,5.0,17.0,60,0.00,,,0.12,Wunderground v.1.15,2013-02-19 18:54:00,
2013-02-19 13:58:00,35.6,23.1,30.03,NW,307,3.0,18.0,60,0.00,,,0.12,Wunderground v.1.15,2013-02-19 18:58:00,
2013-02-19 13:59:00,35.7,23.6,30.03,WNW,299,6.0,18.0,61,0.00,,,0.12,Wunderground v.1.15,2013-02-19 18:59:00,
2013-02-19 14:00:00,35.8,24.4,30.03,West,280,10.0,18.0,63,0.00,,,0.12,Wunderground v.1.15,2013-02-19 19:00:00,
2013-02-19 14:04:00,36.5,24.7,30.03,WNW,295,6.0,19.0,62,0.00,,,0.12,Wunderground v.1.15,2013-02-19 19:04:00,
2013-02-19 14:05:00,36.5,23.5,30.03,WNW,288,3.0,19.0,59,0.00,,,0.12,Wunderground v.1.15,2013-02-19 19:05:00,
2013-02-19 14:09:00,36.7,23.7,30.03,West,272,12.0,19.0,59,0.00,,,0.12,Wunderground v.1.15,2013-02-19 19:09:00,
2013-02-19 14:10:00,36.7,23.3,30.03,West,271,15.0,19.0,58,0.00,,,0.12,Wunderground v.1.15,2013-02-19 19:10:00,
2013-02-19 14:14:00,36.2,23.6,30.03,West,263,19.0,19.0,60,0.00,,,0.12,Wunderground v.1.15,2013-02-19 19:14:00,
2013-02-19 14:15:00,36.3,23.7,30.03,WNW,282,10.0,19.0,60,0.00,,,0.12,Wunderground v.1.15,2013-02-19 19:15:00,
2013-02-19 14:19:00,36.7,23.7,30.03,NW,307,7.0,27.0,59,0.00,,,0.12,Wunderground v.1.15,2013-02-19 19:19:00,
2013-02-19 14:20:00,36.8,24.2,30.03,West,279,7.0,13.0,60,0.00,,,0.12,Wunderground v.1.15,2013-02-19 19:20:00,
2013-02-19 14:25:00,37.6,24.6,30.03,NNW,340,8.0,20.0,59,0.00,,,0.12,Wunderground v.1.15,2013-02-19 19:25:00,
2013-02-19 14:30:00,37.5,24.1,30.03,WNW,286,6.0,7.0,58,0.00,,,0.12,Wunderground v.1.15,2013-02-19 19:30:00,
2013-02-19 14:31:00,37.4,24.0,30.03,NW,305,6.0,8.0,58,0.00,,,0.12,Wunderground v.1.15,2013-02-19 19:31:00,
2013-02-19 14:35:00,37.5,23.6,30.03,WNW,303,6.0,13.0,57,0.00,,,0.12,Wunderground v.1.15,2013-02-19 19:35:00,
2013-02-19 14:36:00,37.6,24.1,30.03,West,270,5.0,13.0,58,0.00,,,0.12,Wunderground v.1.15,2013-02-19 19:36:00,
2013-02-19 14:40:00,37.9,24.8,30.03,NW,304,9.0,10.0,59,0.00,,,0.12,Wunderground v.1.15,2013-02-19 19:40:00,
2013-02-19 14:41:00,37.9,24.4,30.03,WNW,288,5.0,14.0,58,0.00,,,0.12,Wunderground v.1.15,2013-02-19 19:41:00,
2013-02-19 14:45:00,37.8,24.3,30.04,WNW,298,5.0,14.0,58,0.00,,,0.12,Wunderground v.1.15,2013-02-19 19:45:00,
2013-02-19 14:46:00,37.6,24.6,30.04,NW,319,3.0,14.0,59,0.00,,,0.12,Wunderground v.1.15,2013-02-19 19:46:00,
2013-02-19 14:50:00,37.0,24.0,30.04,NW,317,7.0,11.0,59,0.00,,,0.12,Wunderground v.1.15,2013-02-19 19:50:00,
2013-02-19 14:51:00,36.8,23.0,30.04,NNW,342,5.0,11.0,57,0.00,,,0.12,Wunderground v.1.15,2013-02-19 19:51:00,
2013-02-19 14:55:00,36.6,23.6,30.04,NW,306,4.0,11.0,59,0.00,,,0.12,Wunderground v.1.15,2013-02-19 19:55:00,
2013-02-19 14:56:00,36.6,23.6,30.04,NW,304,6.0,11.0,59,0.00,,,0.12,Wunderground v.1.15,2013-02-19 19:56:00,
2013-02-19 14:57:00,36.6,23.6,30.04,NW,319,4.0,11.0,59,0.00,,,0.12,Wunderground v.1.15,2013-02-19 19:57:00,
2013-02-19 15:01:00,36.1,22.3,30.04,NW,306,5.0,7.0,57,0.00,,,0.12,Wunderground v.1.15,2013-02-19 20:01:00,
2013-02-19 15:02:00,36.0,22.6,30.04,NW,325,6.0,10.0,58,0.00,,,0.12,Wunderground v.1.15,2013-02-19 20:02:00,
2013-02-19 15:06:00,36.2,23.2,30.04,WSW,258,13.0,19.0,59,0.00,,,0.12,Wunderground v.1.15,2013-02-19 20:06:00,
2013-02-19 15:07:00,36.3,23.3,30.04,West,269,10.0,19.0,59,0.00,,,0.12,Wunderground v.1.15,2013-02-19 20:07:00,
2013-02-19 15:11:00,36.8,23.4,30.04,WNW,295,11.0,14.0,58,0.00,,,0.12,Wunderground v.1.15,2013-02-19 20:11:00,
2013-02-19 15:12:00,36.8,23.4,30.04,WNW,284,6.0,14.0,58,0.00,,,0.12,Wunderground v.1.15,2013-02-19 20:12:00,
2013-02-19 15:16:00,36.8,23.0,30.04,WNW,296,10.0,18.0,57,0.00,,,0.12,Wunderground v.1.15,2013-02-19 20:16:00,
2013-02-19 15:17:00,36.8,23.0,30.05,WNW,297,4.0,18.0,57,0.00,,,0.12,Wunderground v.1.15,2013-02-19 20:17:00,
2013-02-19 15:21:00,37.2,24.2,30.05,NW,313,4.0,15.0,59,0.00,,,0.12,Wunderground v.1.15,2013-02-19 20:21:00,
2013-02-19 15:22:00,37.2,24.2,30.05,NW,315,5.0,15.0,59,0.00,,,0.12,Wunderground v.1.15,2013-02-19 20:22:00,
2013-02-19 15:27:00,38.2,25.1,30.05,NW,323,5.0,15.0,59,0.00,,,0.12,Wunderground v.1.15,2013-02-19 20:27:00,
2013-02-19 15:28:00,38.3,24.4,30.04,NNW,347,7.0,15.0,57,0.00,,,0.12,Wunderground v.1.15,2013-02-19 20:28:00,
2013-02-19 15:32:00,38.6,24.7,30.05,NW,307,4.0,13.0,57,0.00,,,0.12,Wunderground v.1.15,2013-02-19 20:32:00,
2013-02-19 15:33:00,38.7,24.8,30.05,WNW,287,7.0,13.0,57,0.00,,,0.12,Wunderground v.1.15,2013-02-19 20:33:00,
2013-02-19 15:37:00,38.5,23.7,30.05,NW,315,6.0,21.0,55,0.00,,,0.12,Wunderground v.1.15,2013-02-19 20:37:00,
2013-02-19 15:38:00,38.4,23.2,30.06,WNW,292,6.0,21.0,54,0.00,,,0.12,Wunderground v.1.15,2013-02-19 20:38:00,
2013-02-19 15:42:00,38.1,22.9,30.06,West,266,5.0,15.0,54,0.00,,,0.12,Wunderground v.1.15,2013-02-19 20:42:00,
2013-02-19 15:43:00,38.1,23.8,30.06,WNW,295,5.0,15.0,56,0.00,,,0.12,Wunderground v.1.15,2013-02-19 20:43:00,
2013-02-19 15:47:00,38.1,23.3,30.06,WNW,283,9.0,22.0,55,0.00,,,0.12,Wunderground v.1.15,2013-02-19 20:47:00,
2013-02-19 15:48:00,38.0,22.8,30.06,WNW,284,9.0,22.0,54,0.00,,,0.12,Wunderground v.1.15,2013-02-19 20:48:00,
2013-02-19 15:52:00,38.0,24.1,30.06,West,260,13.0,16.0,57,0.00,,,0.12,Wunderground v.1.15,2013-02-19 20:52:00,
2013-02-19 15:53:00,38.0,22.4,30.06,West,271,7.0,16.0,53,0.00,,,0.12,Wunderground v.1.15,2013-02-19 20:53:00,
2013-02-19 15:54:00,37.9,22.7,30.06,West,280,6.0,16.0,54,0.00,,,0.12,Wunderground v.1.15,2013-02-19 20:54:00,
2013-02-19 15:57:00,37.9,22.3,30.06,WNW,288,3.0,16.0,53,0.00,,,0.12,Wunderground v.1.15,2013-02-19 20:57:00,
2013-02-19 15:58:00,37.9,22.3,30.06,WSW,246,6.0,16.0,53,0.00,,,0.12,Wunderground v.1.15,2013-02-19 20:58:00,
2013-02-19 15:59:00,37.8,22.6,30.07,West,275,11.0,16.0,54,0.00,,,0.12,Wunderground v.1.15,2013-02-19 20:59:00,
2013-02-19 16:02:00,38.0,23.3,30.07,NW,323,13.0,13.0,55,0.00,,,0.12,Wunderground v.1.15,2013-02-19 21:02:00,
2013-02-19 16:03:00,38.2,23.0,30.07,North,357,7.0,13.0,54,0.00,,,0.12,Wunderground v.1.15,2013-02-19 21:03:00,
2013-02-19 16:04:00,38.2,23.9,30.07,NW,326,6.0,13.0,56,0.00,,,0.12,Wunderground v.1.15,2013-02-19 21:04:00,
2013-02-19 16:07:00,38.2,22.6,30.07,NW,322,3.0,14.0,53,0.00,,,0.12,Wunderground v.1.15,2013-02-19 21:07:00,
2013-02-19 16:08:00,38.2,22.6,30.07,NW,319,5.0,14.0,53,0.00,,,0.12,Wunderground v.1.15,2013-02-19 21:08:00,
2013-02-19 16:09:00,38.1,22.5,30.07,NW,315,12.0,16.0,53,0.00,,,0.12,Wunderground v.1.15,2013-02-19 21:09:00,
2013-02-19 16:12:00,37.8,22.2,30.08,WSW,245,18.0,20.0,53,0.00,,,0.12,Wunderground v.1.15,2013-02-19 21:12:00,
2013-02-19 16:13:00,37.7,21.6,30.08,NNW,338,6.0,20.0,52,0.00,,,0.12,Wunderground v.1.15,2013-02-19 21:13:00,
2013-02-19 16:14:00,37.7,22.1,30.08,North,2,5.0,20.0,53,0.00,,,0.12,Wunderground v.1.15,2013-02-19 21:14:00,
2013-02-19 16:17:00,37.4,21.4,30.08,WNW,283,10.0,21.0,52,0.00,,,0.12,Wunderground v.1.15,2013-02-19 21:17:00,
2013-02-19 16:18:00,37.3,21.3,30.08,West,260,12.0,21.0,52,0.00,,,0.12,Wunderground v.1.15,2013-02-19 21:18:00,
2013-02-19 16:19:00,37.1,21.5,30.08,NW,307,10.0,21.0,53,0.00,,,0.12,Wunderground v.1.15,2013-02-19 21:19:00,
2013-02-19 16:20:00,37.0,21.9,30.08,WNW,288,4.0,9.0,54,0.00,,,0.12,Wunderground v.1.15,2013-02-19 21:20:00,
2013-02-19 16:22:00,36.9,21.8,30.08,WNW,288,7.0,18.0,54,0.00,,,0.12,Wunderground v.1.15,2013-02-19 21:22:00,
2013-02-19 16:23:00,36.9,21.8,30.08,WNW,284,4.0,18.0,54,0.00,,,0.12,Wunderground v.1.15,2013-02-19 21:23:00,
2013-02-19 16:24:00,37.0,22.3,30.08,NNW,330,5.0,18.0,55,0.00,,,0.12,Wunderground v.1.15,2013-02-19 21:24:00,
2013-02-19 16:26:00,37.1,22.4,30.09,NNW,340,2.0,18.0,55,0.00,,,0.12,Wunderground v.1.15,2013-02-19 21:26:00,
2013-02-19 16:28:00,37.3,22.6,30.09,North,353,3.0,18.0,55,0.00,,,0.12,Wunderground v.1.15,2013-02-19 21:28:00,
2013-02-19 16:29:00,37.4,22.7,30.09,NW,306,2.0,18.0,55,0.00,,,0.12,Wunderground v.1.15,2013-02-19 21:29:00,
2013-02-19 16:31:00,37.5,22.8,30.09,West,268,9.0,11.0,55,0.00,,,0.12,Wunderground v.1.15,2013-02-19 21:31:00,
2013-02-19 16:33:00,37.2,21.6,30.09,NW,308,3.0,13.0,53,0.00,,,0.12,Wunderground v.1.15,2013-02-19 21:33:00,
2013-02-19 16:34:00,37.1,22.0,30.09,West,267,3.0,13.0,54,0.00,,,0.12,Wunderground v.1.15,2013-02-19 21:34:00,
2013-02-19 16:36:00,37.1,22.8,30.09,West,269,9.0,13.0,56,0.00,,,0.12,Wunderground v.1.15,2013-02-19 21:36:00,
2013-02-19 16:38:00,37.0,21.9,30.09,West,274,6.0,13.0,54,0.00,,,0.12,Wunderground v.1.15,2013-02-19 21:38:00,
2013-02-19 16:39:00,36.9,21.3,30.09,West,278,5.0,14.0,53,0.00,,,0.12,Wunderground v.1.15,2013-02-19 21:39:00,
2013-02-19 16:41:00,36.6,21.5,30.09,NW,320,9.0,17.0,54,0.00,,,0.12,Wunderground v.1.15,2013-02-19 21:41:00,
2013-02-19 16:43:00,36.2,21.1,30.10,WNW,301,13.0,17.0,54,0.00,,,0.12,Wunderground v.1.15,2013-02-19 21:43:00,
2013-02-19 16:44:00,35.7,21.1,30.09,NW,314,7.0,17.0,55,0.00,,,0.12,Wunderground v.1.15,2013-02-19 21:44:00,
2013-02-19 16:47:00,35.4,21.2,30.10,West,263,12.0,17.0,56,0.00,,,0.12,Wunderground v.1.15,2013-02-19 21:47:00,
2013-02-19 16:48:00,35.4,21.7,30.10,WNW,290,6.0,17.0,57,0.00,,,0.12,Wunderground v.1.15,2013-02-19 21:48:00,
2013-02-19 16:49:00,35.3,21.2,30.10,NNW,340,6.0,17.0,56,0.00,,,0.12,Wunderground v.1.15,2013-02-19 21:49:00,
2013-02-19 16:52:00,35.2,21.1,30.10,West,276,5.0,7.0,56,0.00,,,0.12,Wunderground v.1.15,2013-02-19 21:52:00,
2013-02-19 16:53:00,35.2,20.6,30.10,NW,309,3.0,7.0,55,0.00,,,0.12,Wunderground v.1.15,2013-02-19 21:53:00,
2013-02-19 16:54:00,35.0,20.9,30.10,NNW,329,4.0,9.0,56,0.00,,,0.12,Wunderground v.1.15,2013-02-19 21:54:00,
2013-02-19 16:57:00,34.9,21.2,30.10,NW,311,6.0,9.0,57,0.00,,,0.12,Wunderground v.1.15,2013-02-19 21:57:00,
2013-02-19 16:58:00,34.9,21.6,30.10,NW,318,2.0,11.0,58,0.00,,,0.12,Wunderground v.1.15,2013-02-19 21:58:00,
2013-02-19 16:59:00,34.9,21.6,30.11,West,274,5.0,14.0,58,0.00,,,0.12,Wunderground v.1.15,2013-02-19 21:59:00,
2013-02-19 17:00:00,35.0,21.3,30.10,North,354,4.0,5.0,57,0.00,,,0.12,Wunderground v.1.15,2013-02-19 22:00:00,
2013-02-19 17:02:00,35.0,21.3,30.11,NW,309,7.0,15.0,57,0.00,,,0.12,Wunderground v.1.15,2013-02-19 22:02:00,
2013-02-19 17:03:00,34.8,20.3,30.11,WSW,252,5.0,15.0,55,0.00,,,0.12,Wunderground v.1.15,2013-02-19 22:03:00,
2013-02-19 17:04:00,34.6,20.5,30.11,NW,315,4.0,15.0,56,0.00,,,0.12,Wunderground v.1.15,2013-02-19 22:04:00,
2013-02-19 17:05:00,34.5,20.4,30.11,WNW,286,3.0,15.0,56,0.00,,,0.12,Wunderground v.1.15,2013-02-19 22:05:00,
2013-02-19 17:07:00,34.4,20.7,30.11,WNW,296,4.0,15.0,57,0.00,,,0.12,Wunderground v.1.15,2013-02-19 22:07:00,
2013-02-19 17:08:00,34.4,20.7,30.11,NW,313,5.0,15.0,57,0.00,,,0.12,Wunderground v.1.15,2013-02-19 22:08:00,
2013-02-19 17:09:00,34.4,20.7,30.11,WNW,288,4.0,15.0,57,0.00,,,0.12,Wunderground v.1.15,2013-02-19 22:09:00,
2013-02-19 17:10:00,34.3,20.6,30.11,NW,318,5.0,6.0,57,0.00,,,0.12,Wunderground v.1.15,2013-02-19 22:10:00,
2013-02-19 17:12:00,34.4,20.7,30.11,NNW,328,0.0,10.0,57,0.00,,,0.12,Wunderground v.1.15,2013-02-19 22:12:00,
2013-02-19 17:13:00,34.4,21.1,30.11,NW,307,4.0,10.0,58,0.00,,,0.12,Wunderground v.1.15,2013-02-19 22:13:00,
2013-02-19 17:15:00,34.4,21.1,30.11,North,355,12.0,15.0,58,0.00,,,0.12,Wunderground v.1.15,2013-02-19 22:15:00,
2013-02-19 17:17:00,34.4,20.7,30.11,NNW,332,3.0,15.0,57,0.00,,,0.12,Wunderground v.1.15,2013-02-19 22:17:00,
2013-02-19 17:18:00,34.6,22.1,30.11,NW,323,2.0,15.0,60,0.00,,,0.12,Wunderground v.1.15,2013-02-19 22:18:00,
2013-02-19 17:20:00,34.9,21.6,30.11,West,279,9.0,9.0,58,0.00,,,0.12,Wunderground v.1.15,2013-02-19 22:20:00,
2013-02-19 17:22:00,35.3,22.0,30.11,West,261,4.0,10.0,58,0.00,,,0.12,Wunderground v.1.15,2013-02-19 22:22:00,
2013-02-19 17:24:00,35.5,21.3,30.11,WNW,302,4.0,14.0,56,0.00,,,0.12,Wunderground v.1.15,2013-02-19 22:24:00,
2013-02-19 17:25:00,35.7,21.5,30.11,NNW,338,11.0,14.0,56,0.00,,,0.12,Wunderground v.1.15,2013-02-19 22:25:00,
2013-02-19 17:27:00,35.7,21.5,30.11,WNW,292,4.0,14.0,56,0.00,,,0.12,Wunderground v.1.15,2013-02-19 22:27:00,
2013-02-19 17:29:00,35.7,21.5,30.11,NW,309,3.0,14.0,56,0.00,,,0.12,Wunderground v.1.15,2013-02-19 22:29:00,
2013-02-19 17:30:00,35.7,21.5,30.11,NW,321,1.0,5.0,56,0.00,,,0.12,Wunderground v.1.15,2013-02-19 22:30:00,
2013-02-19 17:32:00,35.7,21.5,30.11,NW,304,7.0,10.0,56,0.00,,,0.12,Wunderground v.1.15,2013-02-19 22:32:00,
2013-02-19 17:34:00,35.6,21.0,30.11,West,267,6.0,13.0,55,0.00,,,0.12,Wunderground v.1.15,2013-02-19 22:34:00,
2013-02-19 17:35:00,35.4,20.8,30.11,NNW,328,4.0,19.0,55,0.00,,,0.12,Wunderground v.1.15,2013-02-19 22:35:00,
2013-02-19 17:38:00,35.3,21.6,30.12,WNW,290,3.0,19.0,57,0.00,,,0.12,Wunderground v.1.15,2013-02-19 22:38:00,
2013-02-19 17:39:00,35.3,21.6,30.11,NNW,340,6.0,19.0,57,0.00,,,0.12,Wunderground v.1.15,2013-02-19 22:39:00,
2013-02-19 17:40:00,35.4,21.7,30.12,NW,312,4.0,6.0,57,0.00,,,0.12,Wunderground v.1.15,2013-02-19 22:40:00,
2013-02-19 17:43:00,35.4,21.7,30.12,North,7,2.0,14.0,57,0.00,,,0.12,Wunderground v.1.15,2013-02-19 22:43:00,
2013-02-19 17:44:00,35.4,21.2,30.12,NW,319,0.0,14.0,56,0.00,,,0.12,Wunderground v.1.15,2013-02-19 22:44:00,
2013-02-19 17:45:00,35.5,21.8,30.12,NW,309,3.0,14.0,57,0.00,,,0.12,Wunderground v.1.15,2013-02-19 22:45:00,
2013-02-19 17:48:00,35.4,21.2,30.12,NW,312,3.0,14.0,56,0.00,,,0.12,Wunderground v.1.15,2013-02-19 22:48:00,
2013-02-19 17:49:00,35.3,21.6,30.12,NNW,346,11.0,14.0,57,0.00,,,0.12,Wunderground v.1.15,2013-02-19 22:49:00,
2013-02-19 17:50:00,35.2,21.1,30.12,WNW,298,7.0,10.0,56,0.00,,,0.12,Wunderground v.1.15,2013-02-19 22:50:00,
2013-02-19 17:54:00,35.0,21.3,30.12,West,264,2.0,10.0,57,0.00,,,0.12,Wunderground v.1.15,2013-02-19 22:54:00,
2013-02-19 17:56:00,34.8,21.1,30.12,WNW,299,4.0,10.0,57,0.00,,,0.12,Wunderground v.1.15,2013-02-19 22:56:00,
2013-02-19 17:59:00,34.6,20.9,30.13,WSW,257,13.0,16.0,57,0.00,,,0.12,Wunderground v.1.15,2013-02-19 22:59:00,
2013-02-19 18:00:00,34.4,20.7,30.13,WNW,302,3.0,16.0,57,0.00,,,0.12,Wunderground v.1.15,2013-02-19 23:00:00,
2013-02-19 18:01:00,34.4,20.7,30.13,WNW,286,4.0,10.0,57,0.00,,,0.12,Wunderground v.1.15,2013-02-19 23:01:00,
2013-02-19 18:04:00,34.1,20.9,30.13,WNW,299,0.0,10.0,58,0.00,,,0.12,Wunderground v.1.15,2013-02-19 23:04:00,
2013-02-19 18:05:00,33.9,20.7,30.13,NNW,345,7.0,10.0,58,0.00,,,0.12,Wunderground v.1.15,2013-02-19 23:05:00,
2013-02-19 18:06:00,33.7,20.5,30.13,West,259,3.0,10.0,58,0.00,,,0.12,Wunderground v.1.15,2013-02-19 23:06:00,
2013-02-19 18:07:00,33.7,20.5,30.13,WNW,291,3.0,10.0,58,0.00,,,0.12,Wunderground v.1.15,2013-02-19 23:07:00,
2013-02-19 18:09:00,33.4,20.6,30.13,NW,304,6.0,10.0,59,0.00,,,0.12,Wunderground v.1.15,2013-02-19 23:09:00,
2013-02-19 18:10:00,33.2,20.4,30.13,WNW,295,7.0,10.0,59,0.00,,,0.12,Wunderground v.1.15,2013-02-19 23:10:00,
2013-02-19 18:11:00,33.1,20.3,30.13,NW,313,4.0,10.0,59,0.00,,,0.12,Wunderground v.1.15,2013-02-19 23:11:00,
2013-02-19 18:12:00,33.0,20.6,30.13,NW,305,2.0,10.0,60,0.00,,,0.12,Wunderground v.1.15,2013-02-19 23:12:00,
2013-02-19 18:14:00,32.8,20.0,30.13,WNW,292,2.0,13.0,59,0.00,,,0.12,Wunderground v.1.15,2013-02-19 23:14:00,
2013-02-19 18:15:00,32.7,20.3,30.13,West,267,9.0,13.0,60,0.00,,,0.12,Wunderground v.1.15,2013-02-19 23:15:00,
2013-02-19 18:16:00,32.6,19.8,30.13,WNW,303,1.0,13.0,59,0.00,,,0.12,Wunderground v.1.15,2013-02-19 23:16:00,
2013-02-19 18:17:00,32.6,20.2,30.13,NW,306,3.0,13.0,60,0.00,,,0.12,Wunderground v.1.15,2013-02-19 23:17:00,
2013-02-19 18:19:00,32.5,20.1,30.14,West,263,5.0,13.0,60,0.00,,,0.12,Wunderground v.1.15,2013-02-19 23:19:00,
2013-02-19 18:20:00,32.4,20.0,30.13,NW,311,0.0,4.0,60,0.00,,,0.12,Wunderground v.1.15,2013-02-19 23:20:00,
2013-02-19 18:21:00,32.3,20.3,30.14,NW,310,4.0,4.0,61,0.00,,,0.12,Wunderground v.1.15,2013-02-19 23:21:00,
2013-02-19 18:22:00,32.3,20.3,30.14,WNW,282,4.0,7.0,61,0.00,,,0.12,Wunderground v.1.15,2013-02-19 23:22:00,
2013-02-19 18:24:00,32.2,19.9,30.14,WNW,295,3.0,7.0,60,0.00,,,0.12,Wunderground v.1.15,2013-02-19 23:24:00,
2013-02-19 18:25:00,32.1,20.2,30.14,WNW,301,3.0,7.0,61,0.00,,,0.12,Wunderground v.1.15,2013-02-19 23:25:00,
2013-02-19 18:27:00,32.1,20.2,30.14,NW,314,3.0,7.0,61,0.00,,,0.12,Wunderground v.1.15,2013-02-19 23:27:00,
2013-02-19 18:29:00,32.0,20.1,30.14,NW,318,3.0,7.0,61,0.00,,,0.12,Wunderground v.1.15,2013-02-19 23:29:00,
2013-02-19 18:30:00,31.9,20.0,30.14,WSW,242,3.0,7.0,61,0.00,,,0.12,Wunderground v.1.15,2013-02-19 23:30:00,
2013-02-19 18:32:00,31.8,19.9,30.14,WNW,300,4.0,7.0,61,0.00,,,0.12,Wunderground v.1.15,2013-02-19 23:32:00,
2013-02-19 18:34:00,31.7,19.8,30.14,West,280,4.0,13.0,61,0.00,,,0.12,Wunderground v.1.15,2013-02-19 23:34:00,
2013-02-19 18:35:00,31.7,19.8,30.14,NNW,327,3.0,13.0,61,0.00,,,0.12,Wunderground v.1.15,2013-02-19 23:35:00,
2013-02-19 18:37:00,31.7,19.8,30.14,NW,310,4.0,13.0,61,0.00,,,0.12,Wunderground v.1.15,2013-02-19 23:37:00,
2013-02-19 18:39:00,31.6,19.7,30.15,SSW,200,4.0,13.0,61,0.00,,,0.12,Wunderground v.1.15,2013-02-19 23:39:00,
2013-02-19 18:40:00,31.6,19.7,30.14,NNW,346,4.0,7.0,61,0.00,,,0.12,Wunderground v.1.15,2013-02-19 23:40:00,
2013-02-19 18:42:00,31.5,20.0,30.14,NW,305,1.0,7.0,62,0.00,,,0.12,Wunderground v.1.15,2013-02-19 23:42:00,
2013-02-19 18:43:00,31.5,20.0,30.14,NW,307,2.0,7.0,62,0.00,,,0.12,Wunderground v.1.15,2013-02-19 23:43:00,
2013-02-19 18:44:00,31.4,19.9,30.14,NNW,341,1.0,7.0,62,0.00,,,0.12,Wunderground v.1.15,2013-02-19 23:44:00,
2013-02-19 18:45:00,31.4,19.5,30.15,West,275,3.0,10.0,61,0.00,,,0.12,Wunderground v.1.15,2013-02-19 23:45:00,
2013-02-19 18:47:00,31.3,19.4,30.15,WNW,299,3.0,12.0,61,0.00,,,0.12,Wunderground v.1.15,2013-02-19 23:47:00,
2013-02-19 18:48:00,31.3,19.4,30.15,WNW,299,0.0,12.0,61,0.00,,,0.12,Wunderground v.1.15,2013-02-19 23:48:00,
2013-02-19 18:49:00,31.2,19.3,30.15,WNW,300,0.0,12.0,61,0.00,,,0.12,Wunderground v.1.15,2013-02-19 23:49:00,
2013-02-19 18:51:00,31.2,19.3,30.15,WNW,296,4.0,10.0,61,0.00,,,0.12,Wunderground v.1.15,2013-02-19 23:51:00,
2013-02-19 18:52:00,31.2,19.7,30.15,SSW,200,1.0,12.0,62,0.00,,,0.12,Wunderground v.1.15,2013-02-19 23:52:00,
2013-02-19 18:53:00,31.2,19.7,30.15,NW,309,3.0,12.0,62,0.00,,,0.12,Wunderground v.1.15,2013-02-19 23:53:00,
2013-02-19 18:54:00,31.1,19.2,30.15,WNW,302,1.0,12.0,61,0.00,,,0.12,Wunderground v.1.15,2013-02-19 23:54:00,
2013-02-19 18:56:00,31.1,19.6,30.15,WNW,303,0.0,12.0,62,0.00,,,0.12,Wunderground v.1.15,2013-02-19 23:56:00,
2013-02-19 18:58:00,31.1,19.6,30.15,NW,325,3.0,12.0,62,0.00,,,0.12,Wunderground v.1.15,2013-02-19 23:58:00,
2013-02-19 18:59:00,31.0,19.5,30.15,NNW,340,4.0,12.0,62,0.00,,,0.12,Wunderground v.1.15,2013-02-19 23:59:00,
2013-02-19 19:01:00,31.0,19.9,30.15,NNW,340,0.0,3.0,63,0.00,,,0.12,Wunderground v.1.15,2013-02-20 00:01:00,
2013-02-19 19:02:00,31.0,19.9,30.15,NNW,340,0.0,3.0,63,0.00,,,0.12,Wunderground v.1.15,2013-02-20 00:02:00,
2013-02-19 19:03:00,30.9,19.4,30.16,NNW,340,1.0,3.0,62,0.00,,,0.12,Wunderground v.1.15,2013-02-20 00:03:00,
2013-02-19 19:04:00,30.9,19.8,30.15,NNW,339,2.0,3.0,63,0.00,,,0.12,Wunderground v.1.15,2013-02-20 00:04:00,
2013-02-19 19:06:00,30.8,19.7,30.16,NW,326,6.0,6.0,63,0.00,,,0.12,Wunderground v.1.15,2013-02-20 00:06:00,
2013-02-19 19:08:00,30.7,19.6,30.16,NNW,340,3.0,7.0,63,0.00,,,0.12,Wunderground v.1.15,2013-02-20 00:08:00,
2013-02-19 19:09:00,30.7,19.6,30.16,NNW,343,4.0,11.0,63,0.00,,,0.12,Wunderground v.1.15,2013-02-20 00:09:00,
2013-02-19 19:11:00,30.7,19.6,30.16,WNW,302,2.0,5.0,63,0.00,,,0.12,Wunderground v.1.15,2013-02-20 00:11:00,
2013-02-19 19:13:00,30.6,19.5,30.16,WNW,303,3.0,5.0,63,0.00,,,0.12,Wunderground v.1.15,2013-02-20 00:13:00,
2013-02-19 19:14:00,30.6,19.5,30.16,NNW,327,2.0,5.0,63,0.00,,,0.12,Wunderground v.1.15,2013-02-20 00:14:00,
2013-02-19 19:16:00,30.6,19.5,30.16,NNW,328,2.0,5.0,63,0.00,,,0.12,Wunderground v.1.15,2013-02-20 00:16:00,
2013-02-19 19:18:00,30.5,19.8,30.16,NNW,327,1.0,9.0,64,0.00,,,0.12,Wunderground v.1.15,2013-02-20 00:18:00,
2013-02-19 19:19:00,30.5,19.8,30.16,West,274,4.0,9.0,64,0.00,,,0.12,Wunderground v.1.15,2013-02-20 00:19:00,
2013-02-19 19:21:00,30.3,19.6,30.16,WNW,293,2.0,4.0,64,0.00,,,0.12,Wunderground v.1.15,2013-02-20 00:21:00,
2013-02-19 19:23:00,30.2,19.5,30.17,NW,317,4.0,11.0,64,0.00,,,0.12,Wunderground v.1.15,2013-02-20 00:23:00,
2013-02-19 19:24:00,30.2,19.5,30.16,NW,317,2.0,11.0,64,0.00,,,0.12,Wunderground v.1.15,2013-02-20 00:24:00,
2013-02-19 19:26:00,30.2,19.5,30.16,West,274,4.0,11.0,64,0.00,,,0.12,Wunderground v.1.15,2013-02-20 00:26:00,
2013-02-19 19:28:00,30.3,19.6,30.17,NW,311,4.0,11.0,64,0.00,,,0.12,Wunderground v.1.15,2013-02-20 00:28:00,
2013-02-19 19:29:00,30.3,19.6,30.17,North,5,2.0,11.0,64,0.00,,,0.12,Wunderground v.1.15,2013-02-20 00:29:00,
2013-02-19 19:30:00,30.3,19.6,30.17,NW,313,3.0,11.0,64,0.00,,,0.12,Wunderground v.1.15,2013-02-20 00:30:00,
2013-02-19 19:32:00,30.2,19.5,30.17,NW,326,4.0,12.0,64,0.00,,,0.12,Wunderground v.1.15,2013-02-20 00:32:00,
2013-02-19 19:33:00,30.3,19.6,30.17,NW,325,1.0,12.0,64,0.00,,,0.12,Wunderground v.1.15,2013-02-20 00:33:00,
2013-02-19 19:34:00,30.3,19.6,30.17,WNW,284,3.0,12.0,64,0.00,,,0.12,Wunderground v.1.15,2013-02-20 00:34:00,
2013-02-19 19:35:00,30.3,19.6,30.17,WNW,302,3.0,12.0,64,0.00,,,0.12,Wunderground v.1.15,2013-02-20 00:35:00,
2013-02-19 19:37:00,30.2,19.5,30.17,North,351,0.0,12.0,64,0.00,,,0.12,Wunderground v.1.15,2013-02-20 00:37:00,
2013-02-19 19:38:00,30.2,19.5,30.17,NW,304,5.0,12.0,64,0.00,,,0.12,Wunderground v.1.15,2013-02-20 00:38:00,
2013-02-19 19:39:00,30.1,19.4,30.17,NW,309,1.0,12.0,64,0.00,,,0.12,Wunderground v.1.15,2013-02-20 00:39:00,
2013-02-19 19:40:00,30.1,19.4,30.17,NW,309,2.0,4.0,64,0.00,,,0.12,Wunderground v.1.15,2013-02-20 00:40:00,
2013-02-19 19:42:00,30.0,19.7,30.17,NNW,327,3.0,5.0,65,0.00,,,0.12,Wunderground v.1.15,2013-02-20 00:42:00,
2013-02-19 19:43:00,30.0,19.7,30.17,NNW,332,4.0,10.0,65,0.00,,,0.12,Wunderground v.1.15,2013-02-20 00:43:00,
2013-02-19 19:44:00,29.9,19.6,30.17,NW,313,2.0,10.0,65,0.00,,,0.12,Wunderground v.1.15,2013-02-20 00:44:00,
2013-02-19 19:45:00,29.9,19.6,30.17,NW,313,2.0,10.0,65,0.00,,,0.12,Wunderground v.1.15,2013-02-20 00:45:00,
2013-02-19 19:47:00,29.8,19.5,30.17,NNW,344,5.0,11.0,65,0.00,,,0.12,Wunderground v.1.15,2013-02-20 00:47:00,
2013-02-19 19:48:00,29.8,19.8,30.17,NW,315,3.0,11.0,66,0.00,,,0.12,Wunderground v.1.15,2013-02-20 00:48:00,
2013-02-19 19:49:00,29.7,19.7,30.17,NNW,327,1.0,11.0,66,0.00,,,0.12,Wunderground v.1.15,2013-02-20 00:49:00,
2013-02-19 19:50:00,29.7,19.7,30.17,NNW,334,4.0,6.0,66,0.00,,,0.12,Wunderground v.1.15,2013-02-20 00:50:00,
2013-02-19 19:52:00,29.6,19.6,30.17,NNW,342,2.0,6.0,66,0.00,,,0.12,Wunderground v.1.15,2013-02-20 00:52:00,
2013-02-19 19:53:00,29.6,20.0,30.17,NNW,342,2.0,6.0,67,0.00,,,0.12,Wunderground v.1.15,2013-02-20 00:53:00,
2013-02-19 19:54:00,29.6,20.0,30.17,NNW,334,3.0,6.0,67,0.00,,,0.12,Wunderground v.1.15,2013-02-20 00:54:00,
2013-02-19 19:55:00,29.5,19.9,30.17,WNW,303,4.0,6.0,67,0.00,,,0.12,Wunderground v.1.15,2013-02-20 00:55:00,
2013-02-19 19:57:00,29.4,19.8,30.17,NNW,343,5.0,6.0,67,0.00,,,0.12,Wunderground v.1.15,2013-02-20 00:57:00,
2013-02-19 19:58:00,29.4,19.8,30.17,NW,318,1.0,6.0,67,0.00,,,0.12,Wunderground v.1.15,2013-02-20 00:58:00,
2013-02-19 20:00:00,29.3,20.0,30.17,NW,311,5.0,6.0,68,0.00,,,0.12,Wunderground v.1.15,2013-02-20 01:00:00,
2013-02-19 20:02:00,29.2,19.9,30.18,NW,313,2.0,4.0,68,0.00,,,0.12,Wunderground v.1.15,2013-02-20 01:02:00,
2013-02-19 20:04:00,29.2,19.6,30.18,NW,321,3.0,10.0,67,0.00,,,0.12,Wunderground v.1.15,2013-02-20 01:04:00,
2013-02-19 20:05:00,29.2,19.6,30.18,NW,324,3.0,10.0,67,0.00,,,0.12,Wunderground v.1.15,2013-02-20 01:05:00,
2013-02-19 20:07:00,29.2,19.9,30.18,NW,322,2.0,10.0,68,0.00,,,0.12,Wunderground v.1.15,2013-02-20 01:07:00,
2013-02-19 20:09:00,29.1,19.8,30.18,NW,322,0.0,10.0,68,0.00,,,0.12,Wunderground v.1.15,2013-02-20 01:09:00,
2013-02-19 20:10:00,29.1,19.8,30.18,NW,312,3.0,4.0,68,0.00,,,0.12,Wunderground v.1.15,2013-02-20 01:10:00,
2013-02-19 20:12:00,29.1,19.8,30.18,NNW,329,5.0,6.0,68,0.00,,,0.12,Wunderground v.1.15,2013-02-20 01:12:00,
2013-02-19 20:14:00,29.0,19.8,30.18,NNW,346,4.0,6.0,68,0.00,,,0.12,Wunderground v.1.15,2013-02-20 01:14:00,
2013-02-19 20:15:00,29.0,19.8,30.18,NW,326,3.0,6.0,68,0.00,,,0.12,Wunderground v.1.15,2013-02-20 01:15:00,
2013-02-19 20:17:00,28.9,20.0,30.18,NNW,330,2.0,6.0,69,0.00,,,0.12,Wunderground v.1.15,2013-02-20 01:17:00,
2013-02-19 20:19:00,28.8,19.9,30.18,NW,310,1.0,6.0,69,0.00,,,0.12,Wunderground v.1.15,2013-02-20 01:19:00,
2013-02-19 20:20:00,28.8,19.9,30.18,NW,317,3.0,4.0,69,0.00,,,0.12,Wunderground v.1.15,2013-02-20 01:20:00,
2013-02-19 20:21:00,28.8,19.9,30.18,NW,317,3.0,4.0,69,0.00,,,0.12,Wunderground v.1.15,2013-02-20 01:21:00,
2013-02-19 20:22:00,28.8,19.9,30.18,NW,318,0.0,4.0,69,0.00,,,0.12,Wunderground v.1.15,2013-02-20 01:22:00,
2013-02-19 20:24:00,28.7,19.8,30.18,WNW,292,3.0,6.0,69,0.00,,,0.12,Wunderground v.1.15,2013-02-20 01:24:00,
2013-02-19 20:26:00,28.6,19.7,30.18,NW,312,4.0,7.0,69,0.00,,,0.12,Wunderground v.1.15,2013-02-20 01:26:00,
2013-02-19 20:27:00,28.6,19.7,30.18,NNW,329,1.0,7.0,69,0.00,,,0.12,Wunderground v.1.15,2013-02-20 01:27:00,
2013-02-19 20:30:00,28.5,20.0,30.18,NNW,328,2.0,7.0,70,0.00,,,0.12,Wunderground v.1.15,2013-02-20 01:30:00,
2013-02-19 20:31:00,28.5,20.0,30.18,NNW,330,3.0,4.0,70,0.00,,,0.12,Wunderground v.1.15,2013-02-20 01:31:00,
2013-02-19 20:32:00,28.4,19.9,30.18,NNW,332,4.0,10.0,70,0.00,,,0.12,Wunderground v.1.15,2013-02-20 01:32:00,
2013-02-19 20:35:00,28.4,19.9,30.18,NNW,337,4.0,10.0,70,0.00,,,0.12,Wunderground v.1.15,2013-02-20 01:35:00,
2013-02-19 20:36:00,28.4,19.9,30.18,NNW,337,2.0,10.0,70,0.00,,,0.12,Wunderground v.1.15,2013-02-20 01:36:00,
2013-02-19 20:37:00,28.4,19.9,30.18,NW,321,5.0,14.0,70,0.00,,,0.12,Wunderground v.1.15,2013-02-20 01:37:00,
2013-02-19 20:40:00,28.3,19.8,30.18,NNW,328,4.0,14.0,70,0.00,,,0.12,Wunderground v.1.15,2013-02-20 01:40:00,
2013-02-19 20:41:00,28.3,19.8,30.18,North,359,6.0,10.0,70,0.00,,,0.12,Wunderground v.1.15,2013-02-20 01:41:00,
2013-02-19 20:43:00,28.2,19.7,30.18,NW,323,4.0,11.0,70,0.00,,,0.12,Wunderground v.1.15,2013-02-20 01:43:00,
2013-02-19 20:45:00,28.2,19.7,30.18,NNW,339,4.0,11.0,70,0.00,,,0.12,Wunderground v.1.15,2013-02-20 01:45:00,
2013-02-19 20:46:00,28.2,19.7,30.18,WNW,303,4.0,11.0,70,0.00,,,0.12,Wunderground v.1.15,2013-02-20 01:46:00,